KE5WTH-14 Weather Reports


Display with metric or nautical units.
time (UTC)temp
F
wind
direction
speed
MPH
gust
MPH
rain 1hr
in
rain 24hr
in
rain mn
in
humidity
%
barometer
mb
20260505200545 86 202 5.0 14.0 0.00 0.00 0.00 61 1004.7
20260505200531 86 224 4.0 14.0 0.00 0.00 0.00 63 1004.6
20260505200432 86 233 5.0 14.0 0.00 0.00 0.00 61 1004.7
20260505200331 86 259 5.0 14.0 0.00 0.00 0.00 60 1004.7
20260505200231 86 244 5.0 14.0 0.00 0.00 0.00 61 1004.7
20260505200133 86 259 5.0 14.0 0.00 0.00 0.00 60 1004.7
20260505200042 86 261 6.0 14.0 0.00 0.00 0.00 61 1004.7
20260505200031 86 245 6.0 14.0 0.00 0.00 0.00 61 1004.7
20260505195929 86 207 8.0 14.0 0.00 0.00 0.00 61 1004.7
20260505195826 86 265 6.0 16.0 0.00 0.00 0.00 63 1004.8
20260505195724 86 196 8.0 16.0 0.00 0.00 0.00 61 1004.7
20260505195624 86 212 8.0 16.0 0.00 0.00 0.00 61 1004.8
20260505195541 86 202 6.0 16.0 0.00 0.00 0.00 61 1004.8
20260505195524 86 220 6.0 16.0 0.00 0.00 0.00 61 1004.8
20260505195421 85 243 5.0 16.0 0.00 0.00 0.00 62 1004.8
20260505195320 85 235 6.0 16.0 0.00 0.00 0.00 62 1004.8
20260505195218 85 217 7.0 16.0 0.00 0.00 0.00 63 1004.9
20260505195117 85 237 7.0 16.0 0.00 0.00 0.00 63 1004.9
20260505195042 85 235 9.0 16.0 0.00 0.00 0.00 61 1004.9
20260505195017 85 196 9.0 16.0 0.00 0.00 0.00 61 1004.8
20260505194915 85 271 9.0 16.0 0.00 0.00 0.00 61 1004.8
20260505194813 85 254 7.0 16.0 0.00 0.00 0.00 61 1004.8
20260505194710 85 237 6.0 16.0 0.00 0.00 0.00 60 1004.8
20260505194610 85 245 7.0 16.0 0.00 0.00 0.00 61 1004.8
20260505194541 85 223 7.0 16.0 0.00 0.00 0.00 62 1004.8
20260505194508 85 234 7.0 16.0 0.00 0.00 0.00 62 1004.8
20260505194407 85 226 7.0 16.0 0.00 0.00 0.00 62 1004.9
20260505194303 85 254 6.0 16.0 0.00 0.00 0.00 63 1004.9
20260505194219 85 227 7.0 16.0 0.00 0.00 0.00 62 1004.9
20260505194106 85 281 10.0 16.0 0.00 0.00 0.00 62 1004.9
20260505194040 85 251 10.0 16.0 0.00 0.00 0.00 62 1004.9
20260505194003 85 234 10.0 16.0 0.00 0.00 0.00 62 1004.9
20260505193902 85 235 8.0 15.0 0.00 0.00 0.00 62 1004.9
20260505193804 85 189 8.0 15.0 0.00 0.00 0.00 63 1004.9
20260505193702 85 231 8.0 15.0 0.00 0.00 0.00 62 1004.9
20260505193602 85 247 8.0 15.0 0.00 0.00 0.00 63 1004.8
20260505193542 85 250 7.0 15.0 0.00 0.00 0.00 62 1004.8
20260505193504 85 266 6.0 15.0 0.00 0.00 0.00 62 1004.8
20260505193403 85 266 6.0 15.0 0.00 0.00 0.00 62 1004.7
20260505193302 85 217 7.0 15.0 0.00 0.00 0.00 61 1004.7
20260505193204 85 214 10.0 15.0 0.00 0.00 0.00 62 1004.7
20260505193102 85 224 10.0 15.0 0.00 0.00 0.00 61 1004.7
20260505193038 85 226 9.0 15.0 0.00 0.00 0.00 61 1004.7
20260505193000 85 248 8.0 15.0 0.00 0.00 0.00 62 1004.7
20260505192900 85 204 8.0 15.0 0.00 0.00 0.00 62 1004.7
20260505192759 86 241 8.0 15.0 0.00 0.00 0.00 62 1004.7
20260505192658 86 193 8.0 15.0 0.00 0.00 0.00 63 1004.7
20260505192555 86 230 8.0 16.0 0.00 0.00 0.00 62 1004.7
20260505192536 86 206 8.0 16.0 0.00 0.00 0.00 62 1004.7
20260505192454 86 192 7.0 16.0 0.00 0.00 0.00 65 1004.7
20260505192351 86 202 7.0 16.0 0.00 0.00 0.00 63 1004.7
20260505192251 85 217 7.0 16.0 0.00 0.00 0.00 63 1004.7
20260505192137 85 233 8.0 16.0 0.00 0.00 0.00 63 1004.7
20260505192038 85 235 6.0 16.0 0.00 0.00 0.00 63 1004.7
20260505191937 85 175 6.0 17.0 0.00 0.00 0.00 64 1004.7
20260505191836 85 186 7.0 17.0 0.00 0.00 0.00 64 1004.8
20260505191738 85 237 9.0 17.0 0.00 0.00 0.00 63 1004.8
20260505191636 85 230 9.0 17.0 0.00 0.00 0.00 64 1004.9
20260505191536 85 233 8.0 17.0 0.00 0.00 0.00 64 1004.8
20260505191436 85 190 8.0 17.0 0.00 0.00 0.00 64 1004.8
20260505191339 85 204 7.0 17.0 0.00 0.00 0.00 64 1004.8
20260505191236 84 193 7.0 17.0 0.00 0.00 0.00 66 1004.8
20260505191137 84 212 9.0 17.0 0.00 0.00 0.00 65 1004.9
20260505191041 84 213 11.0 17.0 0.00 0.00 0.00 64 1004.8
20260505191034 84 228 11.0 17.0 0.00 0.00 0.00 64 1004.8
20260505190936 84 204 11.0 17.0 0.00 0.00 0.00 63 1004.8
20260505190836 85 240 10.0 14.0 0.00 0.00 0.00 63 1004.7
20260505190736 85 207 9.0 14.0 0.00 0.00 0.00 64 1004.7
20260505190639 85 196 7.0 14.0 0.00 0.00 0.00 65 1004.6
20260505190535 84 172 6.0 14.0 0.00 0.00 0.00 65 1004.6
20260505190437 84 206 8.0 14.0 0.00 0.00 0.00 65 1004.6
20260505190336 84 220 8.0 14.0 0.00 0.00 0.00 64 1004.6
20260505190236 84 204 8.0 14.0 0.00 0.00 0.00 64 1004.6
20260505190136 84 199 8.0 16.0 0.00 0.00 0.00 64 1004.7
20260505190034 84 216 9.0 18.0 0.00 0.00 0.00 63 1004.6
20260505185933 84 185 9.0 18.0 0.00 0.00 0.00 63 1004.7
20260505185831 84 223 9.0 18.0 0.00 0.00 0.00 63 1004.7
20260505185731 84 196 9.0 18.0 0.00 0.00 0.00 62 1004.7
20260505185633 84 199 8.0 18.0 0.00 0.00 0.00 63 1004.8
20260505185531 84 274 8.0 18.0 0.00 0.00 0.00 62 1004.7
20260505185432 84 212 9.0 18.0 0.00 0.00 0.00 62 1004.7
20260505185331 84 233 11.0 18.0 0.00 0.00 0.00 62 1004.8
20260505185231 84 190 11.0 18.0 0.00 0.00 0.00 62 1004.7
20260505185130 84 200 9.0 18.0 0.00 0.00 0.00 62 1004.7
20260505185033 84 200 8.0 16.0 0.00 0.00 0.00 63 1004.8
20260505185028 84 283 8.0 16.0 0.00 0.00 0.00 63 1004.8
20260505184927 84 203 7.0 16.0 0.00 0.00 0.00 64 1004.8
20260505184816 84 299 7.0 16.0 0.00 0.00 0.00 65 1004.8
20260505184714 84 274 8.0 16.0 0.00 0.00 0.00 64 1004.8
20260505184615 84 217 8.0 16.0 0.00 0.00 0.00 63 1004.9
20260505184531 84 183 8.0 16.0 0.00 0.00 0.00 63 1005.0
20260505184513 84 244 8.0 16.0 0.00 0.00 0.00 63 1005.0
20260505184411 84 224 8.0 16.0 0.00 0.00 0.00 63 1004.9
20260505184310 84 248 7.0 16.0 0.00 0.00 0.00 63 1004.9
20260505184208 84 274 9.0 16.0 0.00 0.00 0.00 62 1005.0
20260505184104 84 245 11.0 16.0 0.00 0.00 0.00 64 1004.9
20260505184032 84 204 10.0 16.0 0.00 0.00 0.00 64 1004.9
20260505184005 84 210 9.0 16.0 0.00 0.00 0.00 65 1004.9
20260505183902 84 216 8.0 15.0 0.00 0.00 0.00 63 1004.9
20260505183759 84 259 10.0 15.0 0.00 0.00 0.00 63 1004.9
20260505183657 85 182 9.0 15.0 0.00 0.00 0.00 63 1004.9
20260505183556 85 220 8.0 14.0 0.00 0.00 0.00 65 1004.9
20260505183532 85 235 8.0 14.0 0.00 0.00 0.00 64 1004.8
20260505183455 85 240 8.0 14.0 0.00 0.00 0.00 64 1004.8
20260505183354 85 250 7.0 14.0 0.00 0.00 0.00 66 1004.9
20260505183253 85 223 6.0 14.0 0.00 0.00 0.00 66 1004.9
20260505183150 85 234 8.0 14.0 0.00 0.00 0.00 66 1004.8
20260505183049 85 231 8.0 14.0 0.00 0.00 0.00 64 1004.8
20260505183030 85 243 7.0 11.0 0.00 0.00 0.00 65 1004.8
20260505182948 85 185 7.0 16.0 0.00 0.00 0.00 66 1004.8
20260505182846 85 220 6.0 16.0 0.00 0.00 0.00 64 1004.8
20260505182744 85 220 6.0 16.0 0.00 0.00 0.00 67 1004.7
20260505182644 84 195 6.0 16.0 0.00 0.00 0.00 67 1004.7
20260505182542 84 202 5.0 16.0 0.00 0.00 0.00 67 1004.8
20260505182533 84 221 6.0 16.0 0.00 0.00 0.00 66 1004.7
20260505182440 84 278 6.0 16.0 0.00 0.00 0.00 65 1004.7
20260505182339 83 210 7.0 16.0 0.00 0.00 0.00 65 1004.8
20260505182309 83 183 6.0 16.0 0.00 0.00 0.00 65 1004.8
20260505182138 83 224 9.0 16.0 0.00 0.00 0.00 65 1004.8
20260505182038 83 209 10.0 16.0 0.00 0.00 0.00 66 1004.8
20260505182019 83 195 9.0 16.0 0.00 0.00 0.00 66 1004.8
20260505181937 83 179 9.0 13.0 0.00 0.00 0.00 66 1004.8
20260505181837 83 168 9.0 12.0 0.00 0.00 0.00 66 1004.9
20260505181737 83 203 8.0 12.0 0.00 0.00 0.00 67 1004.9
20260505181640 83 179 7.0 11.0 0.00 0.00 0.00 67 1005.0
20260505181537 83 210 7.0 12.0 0.00 0.00 0.00 67 1004.9
20260505181519 83 202 7.0 12.0 0.00 0.00 0.00 67 1005.0
20260505181437 83 202 7.0 15.0 0.00 0.00 0.00 67 1005.0
20260505181335 83 173 6.0 15.0 0.00 0.00 0.00 67 1005.0
20260505181233 83 214 6.0 17.0 0.00 0.00 0.00 68 1005.0
20260505181134 83 288 6.0 17.0 0.00 0.00 0.00 67 1005.0
20260505181019 83 190 7.0 17.0 0.00 0.00 0.00 68 1005.0
20260505181011 83 217 7.0 17.0 0.00 0.00 0.00 67 1005.0
20260505180919 83 219 10.0 17.0 0.00 0.00 0.00 66 1005.0
20260505180909 83 217 8.0 17.0 0.00 0.00 0.00 67 1005.0
20260505180844 83 197 9.0 17.0 0.00 0.00 0.00 67 1005.0
20260505180816 83 204 8.0 17.0 0.00 0.00 0.00 67 1005.0
20260505180747 83 188 9.0 17.0 0.00 0.00 0.00 67 1005.0
20260505180505 83 206 9.0 17.0 0.00 0.00 0.00 66 1005.0
20260505180404 83 216 8.0 17.0 0.00 0.00 0.00 68 1005.0
20260505180305 83 207 7.0 16.0 0.00 0.00 0.00 68 1005.0
20260505180204 83 240 8.0 16.0 0.00 0.00 0.00 68 1005.0
20260505180104 83 240 10.0 16.0 0.00 0.00 0.00 67 1005.0
20260505180017 82 216 9.0 16.0 0.00 0.00 0.00 67 1004.9
20260505180004 82 226 9.0 16.0 0.00 0.00 0.00 68 1004.9
20260505175905 82 186 9.0 15.0 0.00 0.00 0.00 68 1005.0
20260505175805 82 192 9.0 15.0 0.00 0.00 0.00 68 1004.9
20260505175701 82 248 8.0 15.0 0.00 0.00 0.00 67 1004.9
20260505175559 82 202 7.0 18.0 0.00 0.00 0.00 68 1004.9
20260505175514 82 275 8.0 18.0 0.00 0.00 0.00 68 1004.9
20260505175458 82 254 8.0 18.0 0.00 0.00 0.00 68 1004.9
20260505175356 82 247 9.0 18.0 0.00 0.00 0.00 67 1004.9
20260505175247 82 254 10.0 18.0 0.00 0.00 0.00 67 1004.9
20260505175142 82 204 9.0 18.0 0.00 0.00 0.00 68 1005.0
20260505175040 82 165 9.0 18.0 0.00 0.00 0.00 69 1005.0
20260505175016 82 223 9.0 20.0 0.00 0.00 0.00 69 1004.9
20260505174939 82 216 8.0 20.0 0.00 0.00 0.00 69 1004.9
20260505174837 82 180 7.0 20.0 0.00 0.00 0.00 68 1004.9
20260505174736 82 221 9.0 20.0 0.00 0.00 0.00 69 1004.9
20260505174641 82 217 9.0 20.0 0.00 0.00 0.00 69 1004.9
20260505174534 82 210 8.0 20.0 0.00 0.00 0.00 68 1004.9
20260505174516 82 193 8.0 20.0 0.00 0.00 0.00 68 1004.9
20260505174435 82 257 9.0 20.0 0.00 0.00 0.00 69 1004.9
20260505174335 82 188 9.0 20.0 0.00 0.00 0.00 68 1004.9
20260505174234 82 245 9.0 20.0 0.00 0.00 0.00 68 1004.9
20260505174134 82 220 11.0 20.0 0.00 0.00 0.00 68 1004.9
20260505174035 82 228 12.0 20.0 0.00 0.00 0.00 68 1005.0
20260505174011 82 228 11.0 17.0 0.00 0.00 0.00 68 1005.0
20260505173936 82 200 10.0 17.0 0.00 0.00 0.00 68 1005.0
20260505173834 82 158 9.0 17.0 0.00 0.00 0.00 70 1004.9
20260505173734 82 192 9.0 17.0 0.00 0.00 0.00 69 1005.0
20260505173631 82 204 8.0 17.0 0.00 0.00 0.00 69 1004.9
20260505173532 82 162 9.0 17.0 0.00 0.00 0.00 70 1004.9
20260505173508 82 209 10.0 17.0 0.00 0.00 0.00 69 1004.9
20260505173432 82 209 11.0 17.0 0.00 0.00 0.00 69 1004.9
20260505173332 82 162 11.0 17.0 0.00 0.00 0.00 69 1005.0
20260505173230 82 200 9.0 17.0 0.00 0.00 0.00 69 1004.9
20260505173132 82 186 8.0 17.0 0.00 0.00 0.00 70 1004.9
20260505173032 82 214 9.0 17.0 0.00 0.00 0.00 71 1004.9
20260505173007 82 173 8.0 17.0 0.00 0.00 0.00 71 1004.9
20260505172931 82 244 9.0 17.0 0.00 0.00 0.00 71 1004.9
20260505172831 82 185 10.0 17.0 0.00 0.00 0.00 70 1004.9
20260505172733 82 210 12.0 17.0 0.00 0.00 0.00 69 1004.9
20260505172631 82 178 11.0 17.0 0.00 0.00 0.00 70 1004.9
20260505172532 82 173 10.0 17.0 0.00 0.00 0.00 71 1004.9
20260505172505 82 206 9.0 17.0 0.00 0.00 0.00 71 1004.9
20260505172433 82 203 9.0 17.0 0.00 0.00 0.00 70 1004.9
20260505172332 81 245 11.0 17.0 0.00 0.00 0.00 71 1004.9
20260505172232 81 166 11.0 17.0 0.00 0.00 0.00 71 1005.0
20260505172131 81 162 9.0 17.0 0.00 0.00 0.00 72 1004.9
20260505172033 81 202 6.0 17.0 0.00 0.00 0.00 73 1004.9
20260505172005 81 214 6.0 17.0 0.00 0.00 0.00 73 1004.9
20260505171932 81 219 6.0 17.0 0.00 0.00 0.00 73 1004.8
20260505171828 81 223 7.0 17.0 0.00 0.00 0.00 72 1004.9
20260505171729 80 214 9.0 17.0 0.00 0.00 0.00 72 1004.8
20260505171608 80 197 10.0 17.0 0.00 0.00 0.00 72 1004.9
20260505171507 80 175 8.0 17.0 0.00 0.00 0.00 72 1004.9
20260505171404 80 169 6.0 16.0 0.00 0.00 0.00 73 1004.9
20260505171305 80 147 8.0 16.0 0.00 0.00 0.00 72 1004.9
20260505171200 80 190 10.0 16.0 0.00 0.00 0.00 72 1004.9
20260505171058 80 182 9.0 16.0 0.00 0.00 0.00 73 1005.0
20260505171003 80 178 9.0 15.0 0.00 0.00 0.00 72 1005.0
20260505170957 80 207 9.0 15.0 0.00 0.00 0.00 72 1005.0
20260505170852 80 216 9.0 15.0 0.00 0.00 0.00 72 1005.0
20260505170824 79 199 10.0 16.0 0.00 0.00 0.00 73 1004.9
20260505170806 79 178 8.0 16.0 0.00 0.00 0.00 73 1005.0
20260505170738 79 202 9.0 16.0 0.00 0.00 0.00 73 1005.1
20260505170707 79 216 8.0 16.0 0.00 0.00 0.00 73 1005.1
20260505170643 79 188 8.0 16.0 0.00 0.00 0.00 73 1004.9
20260505170632 79 220 8.0 16.0 0.00 0.00 0.00 73 1004.9
20260505170353 79 164 8.0 16.0 0.00 0.00 0.00 73 1004.7
20260505170324 79 230 9.0 16.0 0.00 0.00 0.00 73 1004.6
20260505170252 79 190 10.0 16.0 0.00 0.00 0.00 73 1004.7
20260505170225 79 162 10.0 16.0 0.00 0.00 0.00 73 1004.8
20260505165936 79 217 9.0 16.0 0.00 0.00 0.00 73 1004.9
20260505165839 79 216 9.0 16.0 0.00 0.00 0.00 73 1005.1
20260505165736 79 214 9.0 16.0 0.00 0.00 0.00 73 1005.1
20260505165636 79 207 9.0 16.0 0.00 0.00 0.00 73 1005.1
20260505165534 79 196 9.0 14.0 0.00 0.00 0.00 72 1005.1
20260505165459 79 180 9.0 14.0 0.00 0.00 0.00 73 1005.0
20260505165437 79 202 9.0 14.0 0.00 0.00 0.00 73 1005.0
20260505165334 79 195 9.0 14.0 0.00 0.00 0.00 73 1005.0
20260505165235 79 268 8.0 14.0 0.00 0.00 0.00 74 1005.1
20260505165134 79 171 9.0 14.0 0.00 0.00 0.00 74 1005.0
20260505165034 79 221 10.0 14.0 0.00 0.00 0.00 73 1004.9
20260505164959 79 238 9.0 14.0 0.00 0.00 0.00 73 1004.8
20260505164936 79 182 9.0 14.0 0.00 0.00 0.00 73 1004.8
20260505164901 79 241 6.0 15.0 0.00 0.00 0.00 75 1004.9
20260505164846 79 178 9.0 14.0 0.00 0.00 0.00 73 1004.9
20260505164818 79 224 8.0 14.0 0.00 0.00 0.00 73 1004.9
20260505164749 79 131 5.0 14.0 0.00 0.00 0.00 75 1005.0
20260505164720 79 217 6.0 15.0 0.00 0.00 0.00 75 1004.9
20260505164430 79 188 6.0 15.0 0.00 0.00 0.00 75 1004.9
20260505164319 78 228 7.0 15.0 0.00 0.00 0.00 74 1004.9
20260505164218 78 235 9.0 15.0 0.00 0.00 0.00 74 1004.9
20260505164115 78 207 9.0 15.0 0.00 0.00 0.00 74 1004.9
20260505164013 78 173 9.0 15.0 0.00 0.00 0.00 75 1005.0
20260505163953 78 203 9.0 15.0 0.00 0.00 0.00 75 1005.0
20260505163933 78 197 7.0 14.0 0.00 0.00 0.00 75 1005.1
20260505163921 78 204 9.0 15.0 0.00 0.00 0.00 75 1005.0
20260505163852 78 203 8.0 15.0 0.00 0.00 0.00 75 1004.9
20260505163819 78 176 9.0 15.0 0.00 0.00 0.00 75 1005.0
20260505163737 78 176 9.0 15.0 0.00 0.00 0.00 75 1005.1
20260505163707 78 190 8.0 14.0 0.00 0.00 0.00 75 1005.1
20260505163425 78 175 5.0 13.0 0.00 0.00 0.00 76 1005.0
20260505163341 78 233 6.0 13.0 0.00 0.00 0.00 76 1005.1
20260505163305 78 212 8.0 13.0 0.00 0.00 0.00 76 1005.1
20260505163235 78 209 7.0 13.0 0.00 0.00 0.00 76 1005.0
20260505163206 78 196 5.0 13.0 0.00 0.00 0.00 76 1005.0
20260505162905 78 202 5.0 17.0 0.00 0.00 0.00 76 1004.9
20260505162853 78 217 7.0 17.0 0.00 0.00 0.00 76 1005.2
20260505162831 78 161 6.0 17.0 0.00 0.00 0.00 76 1004.9
20260505162804 78 152 8.0 17.0 0.00 0.00 0.00 76 1004.9
20260505162735 78 214 9.0 17.0 0.00 0.00 0.00 75 1005.1
20260505162706 78 202 8.0 17.0 0.00 0.00 0.00 76 1005.2
20260505162405 78 192 6.0 17.0 0.00 0.00 0.00 76 1005.2
20260505162307 78 202 7.0 17.0 0.00 0.00 0.00 76 1005.2
20260505162206 78 234 9.0 17.0 0.00 0.00 0.00 76 1005.2
20260505162106 78 217 9.0 17.0 0.00 0.00 0.00 75 1005.1
20260505162007 78 202 9.0 17.0 0.00 0.00 0.00 75 1005.1
20260505161949 78 157 10.0 17.0 0.00 0.00 0.00 75 1005.1
20260505161905 78 162 10.0 15.0 0.00 0.00 0.00 75 1005.1
20260505161806 78 209 9.0 15.0 0.00 0.00 0.00 75 1005.1
20260505161706 78 169 9.0 15.0 0.00 0.00 0.00 75 1005.0
20260505161605 78 220 8.0 15.0 0.00 0.00 0.00 75 1005.0
20260505161506 78 217 7.0 16.0 0.00 0.00 0.00 75 1004.9
20260505161450 78 223 7.0 16.0 0.00 0.00 0.00 75 1004.9
20260505161401 78 216 7.0 16.0 0.00 0.00 0.00 75 1005.0
20260505161256 78 207 8.0 16.0 0.00 0.00 0.00 75 1004.9
20260505161155 78 206 8.0 16.0 0.00 0.00 0.00 75 1005.0
20260505161052 78 214 9.0 16.0 0.00 0.00 0.00 75 1004.9
20260505160952 78 193 9.0 16.0 0.00 0.00 0.00 75 1004.9
20260505160840 78 161 9.0 16.0 0.00 0.00 0.00 75 1004.8
20260505160738 78 235 8.0 16.0 0.00 0.00 0.00 75 1004.8
20260505160637 78 192 9.0 16.0 0.00 0.00 0.00 75 1004.8
20260505160605 75 196 7.0 18.0 0.00 0.00 0.00 80 1004.9
20260505160555 78 200 9.0 16.0 0.00 0.00 0.00 75 1004.7
20260505160549 78 172 11.0 21.0 0.00 0.00 0.00 76 1004.7
20260505160542 77 234 10.0 21.0 0.00 0.00 0.00 77 1004.6
20260505160536 78 206 7.0 17.0 0.00 0.00 0.00 75 1004.7
20260505160527 77 195 12.0 21.0 0.00 0.00 0.00 77 1004.5
20260505160521 75 186 6.0 18.0 0.00 0.00 0.00 80 1004.8
20260505160459 78 219 7.0 17.0 0.00 0.00 0.00 75 1004.7
20260505160452 78 286 7.0 17.0 0.00 0.00 0.00 75 1004.7
20260505160423 78 185 9.0 17.0 0.00 0.00 0.00 75 1004.8
20260505160352 78 188 8.0 17.0 0.00 0.00 0.00 75 1004.8
20260505160325 78 217 8.0 17.0 0.00 0.00 0.00 76 1004.8
20260505153331 75 202 8.0 18.0 0.00 0.00 0.00 80 1004.5
20260505153301 75 195 9.0 18.0 0.00 0.00 0.00 79 1004.6
20260505153234 75 228 10.0 18.0 0.00 0.00 0.00 79 1004.7
20260505153209 75 202 9.0 18.0 0.00 0.00 0.00 80 1004.6
20260505153139 75 182 9.0 18.0 0.00 0.00 0.00 80 1004.6
20260505153105 75 213 10.0 16.0 0.00 0.00 0.00 80 1004.7
20260505153036 75 207 10.0 15.0 0.00 0.00 0.00 79 1004.7
20260505153007 75 230 8.0 14.0 0.00 0.00 0.00 80 1004.8
20260505151223 75 186 6.0 18.0 0.00 0.00 0.00 80 1004.8
20260505151155 75 213 6.0 18.0 0.00 0.00 0.00 80 1004.9
20260505150907 75 182 7.0 18.0 0.00 0.00 0.00 80 1004.8
20260505150758 75 221 7.0 18.0 0.00 0.00 0.00 80 1004.8
20260505150657 75 234 7.0 18.0 0.00 0.00 0.00 80 1004.8
20260505150555 75 209 7.0 18.0 0.00 0.00 0.00 80 1004.7
20260505150454 75 234 8.0 18.0 0.00 0.00 0.00 80 1004.8
20260505150431 75 162 9.0 18.0 0.00 0.00 0.00 80 1004.8
20260505150354 75 197 10.0 18.0 0.00 0.00 0.00 80 1004.7
20260505150300 75 206 11.0 18.0 0.00 0.00 0.00 80 1004.7
20260505150150 75 207 8.0 19.0 0.00 0.00 0.00 81 1004.7
20260505140615 73 209 11.0 19.0 0.00 0.00 0.00 83 1004.5
20260505140512 73 212 11.0 19.0 0.00 0.00 0.00 83 1004.6
20260505140430 73 203 11.0 19.0 0.00 0.00 0.00 83 1004.6
20260505140410 73 196 11.0 19.0 0.00 0.00 0.00 83 1004.5
20260505140310 73 214 13.0 19.0 0.00 0.00 0.00 83 1004.5
20260505140210 73 204 9.0 18.0 0.00 0.00 0.00 83 1004.5
20260505140108 73 195 8.0 16.0 0.00 0.00 0.00 83 1004.6
20260505130239 72 161 6.0 19.0 0.00 0.00 0.00 84 1004.6
20260505130136 72 168 8.0 19.0 0.00 0.00 0.00 84 1004.6
20260505125028 72 190 8.0 16.0 0.00 0.00 0.00 84 1004.6
20260505124933 72 186 8.0 16.0 0.00 0.00 0.00 84 1004.6
20260505124926 72 203 8.0 16.0 0.00 0.00 0.00 84 1004.5
20260505124825 72 192 9.0 18.0 0.00 0.00 0.00 84 1004.6
20260505124723 72 176 9.0 18.0 0.00 0.00 0.00 84 1004.6
20260505124612 72 252 6.0 18.0 0.00 0.00 0.00 84 1004.5
20260505124511 72 176 6.0 18.0 0.00 0.00 0.00 84 1004.5
20260505124429 72 193 8.0 18.0 0.00 0.00 0.00 84 1004.5
20260505124409 72 221 9.0 18.0 0.00 0.00 0.00 84 1004.5
20260505124308 72 179 10.0 18.0 0.00 0.00 0.00 84 1004.4
20260505124205 72 220 9.0 18.0 0.00 0.00 0.00 84 1004.4
20260505124104 72 196 8.0 18.0 0.00 0.00 0.00 84 1004.4
20260505124005 72 210 11.0 18.0 0.00 0.00 0.00 83 1004.3
20260505123930 72 217 10.0 18.0 0.00 0.00 0.00 83 1004.3
20260505123904 72 203 10.0 18.0 0.00 0.00 0.00 83 1004.4
20260505123806 72 154 9.0 17.0 0.00 0.00 0.00 83 1004.3
20260505123702 72 233 8.0 17.0 0.00 0.00 0.00 83 1004.3
20260505123552 72 189 8.0 17.0 0.00 0.00 0.00 83 1004.4
20260505123449 72 209 9.0 17.0 0.00 0.00 0.00 83 1004.3
20260505123428 72 210 9.0 17.0 0.00 0.00 0.00 84 1004.3
20260505123349 72 209 9.0 17.0 0.00 0.00 0.00 84 1004.3
20260505123246 72 157 7.0 14.0 0.00 0.00 0.00 84 1004.2
20260505123147 72 223 7.0 14.0 0.00 0.00 0.00 84 1004.2
20260505123045 72 141 7.0 14.0 0.00 0.00 0.00 84 1004.3
20260505122942 72 226 8.0 14.0 0.00 0.00 0.00 84 1004.3
20260505122927 72 186 8.0 14.0 0.00 0.00 0.00 84 1004.3
20260505122840 72 202 7.0 15.0 0.00 0.00 0.00 84 1004.2
20260505122739 72 138 7.0 15.0 0.00 0.00 0.00 83 1004.3
20260505122632 72 202 8.0 15.0 0.00 0.00 0.00 83 1004.1
20260505122533 72 182 8.0 15.0 0.00 0.00 0.00 84 1004.2
20260505122435 72 195 8.0 15.0 0.00 0.00 0.00 83 1004.3
20260505122429 72 204 8.0 15.0 0.00 0.00 0.00 83 1004.3
20260505122334 72 226 6.0 15.0 0.00 0.00 0.00 83 1004.2
20260505122234 72 192 7.0 15.0 0.00 0.00 0.00 83 1004.1
20260505122133 72 169 8.0 15.0 0.00 0.00 0.00 84 1004.2
20260505122032 72 178 9.0 15.0 0.00 0.00 0.00 84 1004.1
20260505121934 72 212 8.0 15.0 0.00 0.00 0.00 84 1004.1
20260505121927 72 219 8.0 15.0 0.00 0.00 0.00 84 1004.1
20260505121832 72 209 6.0 12.0 0.00 0.00 0.00 84 1004.1
20260505121732 72 204 5.0 14.0 0.00 0.00 0.00 84 1004.1
20260505121633 72 171 6.0 14.0 0.00 0.00 0.00 84 1004.1
20260505121533 72 204 7.0 14.0 0.00 0.00 0.00 84 1004.0
20260505121435 72 243 8.0 14.0 0.00 0.00 0.00 84 1004.0
20260505121427 72 221 7.0 14.0 0.00 0.00 0.00 84 1004.0
20260505121333 72 188 7.0 14.0 0.00 0.00 0.00 84 1004.1
20260505121233 72 207 7.0 14.0 0.00 0.00 0.00 84 1004.1
20260505121132 72 169 6.0 14.0 0.00 0.00 0.00 84 1004.0
20260505121034 72 173 6.0 14.0 0.00 0.00 0.00 84 1004.1
20260505120935 72 185 7.0 14.0 0.00 0.00 0.00 84 1004.0
20260505120927 72 200 7.0 14.0 0.00 0.00 0.00 84 1004.0
20260505120831 72 155 7.0 14.0 0.00 0.00 0.00 84 1004.1
20260505120729 72 168 6.0 14.0 0.00 0.00 0.00 84 1004.1
20260505120630 72 193 6.0 14.0 0.00 0.00 0.00 84 1004.0
20260505120529 72 193 6.0 14.0 0.00 0.00 0.00 84 1003.8
20260505120430 72 195 7.0 14.0 0.00 0.00 0.00 83 1004.1
20260505120426 72 192 7.0 14.0 0.00 0.00 0.00 83 1004.1
20260505120327 72 173 7.0 14.0 0.00 0.00 0.00 83 1004.0
20260505120224 72 223 5.0 13.0 0.00 0.00 0.00 83 1004.1
20260505120123 72 210 4.0 14.0 0.00 0.00 0.00 83 1004.0
20260505120011 72 140 5.0 17.0 0.00 0.00 0.00 83 1004.0
20260505115910 72 186 6.0 17.0 0.00 0.00 0.00 83 1004.0
20260505115808 72 197 6.0 17.0 0.00 0.00 0.00 83 1003.8
20260505115707 72 159 7.0 17.0 0.00 0.00 0.00 83 1004.0
20260505115606 72 147 8.0 17.0 0.00 0.00 0.00 83 1004.0
20260505115505 72 179 8.0 17.0 0.00 0.00 0.00 83 1003.8
20260505115426 72 186 8.0 17.0 0.00 0.00 0.00 83 1003.8
20260505115405 72 220 7.0 17.0 0.00 0.00 0.00 83 1004.0
20260505115307 72 216 9.0 17.0 0.00 0.00 0.00 83 1004.0
20260505115205 72 202 11.0 17.0 0.00 0.00 0.00 83 1003.7
20260505115105 72 200 9.0 17.0 0.00 0.00 0.00 83 1003.8
20260505115007 72 166 8.0 14.0 0.00 0.00 0.00 83 1003.7
20260505114927 72 196 9.0 14.0 0.00 0.00 0.00 83 1003.7
20260505114905 72 207 8.0 14.0 0.00 0.00 0.00 83 1003.7
20260505114803 72 224 6.0 14.0 0.00 0.00 0.00 83 1003.7
20260505114656 72 206 5.0 19.0 0.00 0.00 0.00 83 1003.7
20260505114550 72 203 8.0 19.0 0.00 0.00 0.00 83 1003.7
20260505114449 72 230 10.0 19.0 0.00 0.00 0.00 83 1003.8
20260505114426 72 210 10.0 19.0 0.00 0.00 0.00 83 1003.8
20260505114347 72 148 10.0 19.0 0.00 0.00 0.00 83 1003.8
20260505114246 72 202 10.0 19.0 0.00 0.00 0.00 83 1003.7
20260505114146 72 235 9.0 19.0 0.00 0.00 0.00 83 1003.7
20260505114044 72 210 8.0 19.0 0.00 0.00 0.00 83 1003.6
20260505113942 72 213 9.0 19.0 0.00 0.00 0.00 83 1003.6
20260505113927 72 234 9.0 19.0 0.00 0.00 0.00 83 1003.6
20260505113843 72 189 10.0 19.0 0.00 0.00 0.00 83 1003.7
20260505113740 72 189 9.0 19.0 0.00 0.00 0.00 84 1003.5
20260505113635 72 204 8.0 15.0 0.00 0.00 0.00 84 1003.6
20260505113534 72 182 8.0 15.0 0.00 0.00 0.00 84 1003.5
20260505113437 72 206 5.0 15.0 0.00 0.00 0.00 84 1003.5
20260505113427 72 183 5.0 15.0 0.00 0.00 0.00 84 1003.5
20260505113335 72 152 7.0 15.0 0.00 0.00 0.00 84 1003.4
20260505113236 71 157 8.0 15.0 0.00 0.00 0.00 84 1003.6
20260505113134 71 158 6.0 11.0 0.00 0.00 0.00 84 1003.6
20260505113034 71 154 6.0 12.0 0.00 0.00 0.00 84 1003.5
20260505112930 71 193 6.0 12.0 0.00 0.00 0.00 84 1003.6
20260505112834 71 212 6.0 12.0 0.00 0.00 0.00 84 1003.7
20260505112733 71 152 6.0 13.0 0.00 0.00 0.00 84 1003.7
20260505112632 71 213 6.0 13.0 0.00 0.00 0.00 84 1003.7
20260505112532 72 188 5.0 13.0 0.00 0.00 0.00 84 1003.8
20260505112435 71 197 5.0 13.0 0.00 0.00 0.00 84 1003.7
20260505112427 71 214 5.0 13.0 0.00 0.00 0.00 84 1003.7
20260505112334 72 157 7.0 13.0 0.00 0.00 0.00 84 1003.7
20260505112233 72 162 8.0 13.0 0.00 0.00 0.00 84 1003.7
20260505112134 71 192 9.0 13.0 0.00 0.00 0.00 84 1003.7
20260505112033 72 183 7.0 13.0 0.00 0.00 0.00 84 1003.8
20260505111936 71 235 7.0 15.0 0.00 0.00 0.00 84 1003.7
20260505111928 71 197 7.0 15.0 0.00 0.00 0.00 84 1003.7
20260505111834 71 200 9.0 15.0 0.00 0.00 0.00 84 1003.6
20260505111732 71 189 9.0 15.0 0.00 0.00 0.00 84 1003.7
20260505111632 71 241 10.0 16.0 0.00 0.00 0.00 84 1003.7
20260505111534 71 188 6.0 16.0 0.00 0.00 0.00 84 1003.6
20260505111428 71 188 6.0 16.0 0.00 0.00 0.00 84 1003.6
20260505111334 71 188 6.0 16.0 0.00 0.00 0.00 84 1003.7
20260505111230 71 196 8.0 16.0 0.00 0.00 0.00 84 1003.6
20260505111131 71 252 9.0 17.0 0.00 0.00 0.00 83 1003.6
20260505111026 71 196 7.0 17.0 0.00 0.00 0.00 83 1003.4
20260505110914 72 193 8.0 17.0 0.00 0.00 0.00 83 1003.5
20260505110905 71 204 9.0 17.0 0.00 0.00 0.00 83 1003.5
20260505110814 71 200 8.0 17.0 0.00 0.00 0.00 83 1003.5
20260505110712 72 223 8.0 17.0 0.00 0.00 0.00 83 1003.5
20260505110609 72 190 9.0 17.0 0.00 0.00 0.00 83 1003.6
20260505110505 72 203 7.0 17.0 0.00 0.00 0.00 83 1003.5
20260505110406 72 182 7.0 17.0 0.00 0.00 0.00 83 1003.5
20260505110301 72 189 7.0 17.0 0.00 0.00 0.00 83 1003.4
20260505110203 72 209 6.0 16.0 0.00 0.00 0.00 83 1003.5
20260505102124 72 230 10.0 18.0 0.00 0.00 0.00 83 1003.6
20260505102026 72 193 9.0 18.0 0.00 0.00 0.00 83 1003.6
20260505101926 72 190 9.0 17.0 0.00 0.00 0.00 83 1003.7
20260505101845 72 219 9.0 17.0 0.00 0.00 0.00 83 1003.7
20260505101825 72 213 10.0 17.0 0.00 0.00 0.00 83 1003.7
20260505101724 72 182 9.0 24.0 0.00 0.00 0.00 83 1003.6
20260505101624 72 173 9.0 24.0 0.00 0.00 0.00 83 1003.5
20260505101526 72 192 9.0 24.0 0.00 0.00 0.00 83 1003.6
20260505101425 72 226 7.0 24.0 0.00 0.00 0.00 83 1003.6
20260505101342 72 202 7.0 24.0 0.00 0.00 0.00 83 1003.5
20260505101324 72 199 7.0 24.0 0.00 0.00 0.00 83 1003.5
20260505101225 72 180 9.0 24.0 0.00 0.00 0.00 83 1003.5
20260505101124 72 212 8.0 24.0 0.00 0.00 0.00 83 1003.6
20260505101024 72 182 9.0 24.0 0.00 0.00 0.00 83 1003.6
20260505100924 72 224 14.0 24.0 0.00 0.00 0.00 83 1003.6
20260505100842 72 183 14.0 24.0 0.00 0.00 0.00 83 1003.5
20260505100825 72 179 14.0 24.0 0.00 0.00 0.00 83 1003.5
20260505100726 72 178 12.0 21.0 0.00 0.00 0.00 83 1003.8
20260505100621 72 197 11.0 19.0 0.00 0.00 0.00 83 1003.5
20260505100518 72 182 10.0 17.0 0.00 0.00 0.00 83 1003.4
20260505100419 72 185 9.0 17.0 0.00 0.00 0.00 83 1003.3
20260505100342 72 189 10.0 17.0 0.00 0.00 0.00 83 1003.3
20260505100318 72 206 10.0 16.0 0.00 0.00 0.00 83 1003.5
20260505100215 72 155 11.0 18.0 0.00 0.00 0.00 83 1003.5
20260505100115 72 199 10.0 18.0 0.00 0.00 0.00 83 1003.4
20260505100013 72 176 10.0 18.0 0.00 0.00 0.00 83 1003.5
20260505095913 72 140 8.0 18.0 0.00 0.00 0.00 83 1003.4
20260505095839 72 207 8.0 18.0 0.00 0.00 0.00 83 1003.4
20260505095810 72 172 7.0 18.0 0.00 0.00 0.00 83 1003.4
20260505095711 72 145 8.0 18.0 0.00 0.00 0.00 83 1003.4
20260505095611 72 175 9.0 18.0 0.00 0.00 0.00 83 1003.6
20260505095510 72 186 10.0 18.0 0.00 0.00 0.00 83 1003.6
20260505095408 72 192 11.0 18.0 0.00 0.00 0.00 83 1003.6
20260505095341 72 189 10.0 18.0 0.00 0.00 0.00 83 1003.6
20260505095307 72 192 10.0 18.0 0.00 0.00 0.00 83 1003.5
20260505095205 72 243 9.0 17.0 0.00 0.00 0.00 83 1003.5
20260505095107 71 203 9.0 17.0 0.00 0.00 0.00 83 1003.5
20260505094959 72 172 7.0 15.0 0.00 0.00 0.00 83 1003.5
20260505094858 72 141 7.0 15.0 0.00 0.00 0.00 83 1003.6
20260505094837 72 180 8.0 15.0 0.00 0.00 0.00 83 1003.6
20260505094756 72 171 8.0 17.0 0.00 0.00 0.00 83 1003.6
20260505094750 72 200 6.0 18.0 0.00 0.00 0.00 83 1003.5
20260505094723 72 195 8.0 17.0 0.00 0.00 0.00 83 1003.6
20260505094654 72 180 7.0 18.0 0.00 0.00 0.00 83 1003.5
20260505094622 72 192 8.0 18.0 0.00 0.00 0.00 83 1003.5
20260505094550 72 212 7.0 18.0 0.00 0.00 0.00 83 1003.5
20260505094246 72 196 7.0 18.0 0.00 0.00 0.00 83 1003.5
20260505094138 72 213 7.0 18.0 0.00 0.00 0.00 83 1003.5
20260505094037 72 185 8.0 18.0 0.00 0.00 0.00 83 1003.5
20260505093933 72 168 10.0 18.0 0.00 0.00 0.00 83 1003.5
20260505093832 72 217 10.0 18.0 0.00 0.00 0.00 83 1003.6
20260505093742 71 179 6.0 15.0 0.00 0.00 0.00 83 1003.7
20260505093706 71 207 9.0 18.0 0.00 0.00 0.00 83 1003.6
20260505093638 71 183 8.0 15.0 0.00 0.00 0.00 83 1003.6
20260505093609 71 207 8.0 15.0 0.00 0.00 0.00 83 1003.6
20260505093541 71 179 6.0 15.0 0.00 0.00 0.00 83 1003.7
20260505093232 71 165 5.0 15.0 0.00 0.00 0.00 83 1003.7
20260505093132 71 175 7.0 15.0 0.00 0.00 0.00 83 1003.8
20260505093032 71 223 7.0 15.0 0.00 0.00 0.00 83 1003.8
20260505092933 71 185 8.0 18.0 0.00 0.00 0.00 83 1003.7
20260505092832 71 169 9.0 18.0 0.00 0.00 0.00 83 1003.7
20260505092731 71 197 10.0 18.0 0.00 0.00 0.00 83 1003.6
20260505092634 71 142 8.0 18.0 0.00 0.00 0.00 83 1003.7
20260505092532 71 217 7.0 19.0 0.00 0.00 0.00 83 1003.8
20260505092432 71 244 9.0 20.0 0.00 0.00 0.00 83 1003.7
20260505092331 71 200 9.0 20.0 0.00 0.00 0.00 83 1003.7
20260505092233 71 195 8.0 20.0 0.00 0.00 0.00 83 1003.8
20260505092131 71 190 10.0 20.0 0.00 0.00 0.00 83 1003.8
20260505092030 71 195 11.0 20.0 0.00 0.00 0.00 83 1004.0
20260505091927 71 207 9.0 20.0 0.00 0.00 0.00 83 1004.1
20260505091834 71 203 8.0 20.0 0.00 0.00 0.00 83 1004.1
20260505091827 71 190 8.0 20.0 0.00 0.00 0.00 83 1004.1
20260505091724 71 178 10.0 20.0 0.00 0.00 0.00 83 1004.1
20260505091624 71 216 12.0 20.0 0.00 0.00 0.00 83 1004.0
20260505091522 71 175 11.0 20.0 0.00 0.00 0.00 83 1004.0
20260505091423 71 171 10.0 17.0 0.00 0.00 0.00 83 1004.1
20260505091331 71 212 11.0 17.0 0.00 0.00 0.00 83 1004.0
20260505091324 71 164 11.0 17.0 0.00 0.00 0.00 83 1004.0
20260505091224 71 210 12.0 17.0 0.00 0.00 0.00 83 1004.0
20260505091123 71 214 13.0 17.0 0.00 0.00 0.00 83 1004.1
20260505091022 71 223 11.0 17.0 0.00 0.00 0.00 83 1004.1
20260505090923 71 226 10.0 17.0 0.00 0.00 0.00 83 1004.1
20260505090836 71 196 11.0 17.0 0.00 0.00 0.00 83 1004.1
20260505090824 71 207 10.0 17.0 0.00 0.00 0.00 83 1004.1
20260505090723 71 206 9.0 17.0 0.00 0.00 0.00 83 1004.1
20260505090622 71 165 11.0 17.0 0.00 0.00 0.00 83 1004.1
20260505090524 71 199 11.0 17.0 0.00 0.00 0.00 83 1004.0
20260505090423 71 209 10.0 17.0 0.00 0.00 0.00 83 1004.0
20260505090332 71 219 9.0 17.0 0.00 0.00 0.00 83 1004.0
20260505090323 71 166 9.0 17.0 0.00 0.00 0.00 83 1004.0
20260505090223 71 199 9.0 17.0 0.00 0.00 0.00 83 1004.0
20260505090122 71 179 9.0 17.0 0.00 0.00 0.00 83 1004.0
20260505090023 71 221 10.0 17.0 0.00 0.00 0.00 83 1004.1
20260505085923 71 196 10.0 17.0 0.00 0.00 0.00 83 1004.1
20260505085834 71 193 10.0 16.0 0.00 0.00 0.00 83 1003.8
20260505085823 71 149 10.0 16.0 0.00 0.00 0.00 83 1003.8
20260505085748 71 241 8.0 17.0 0.00 0.00 0.00 83 1004.1
20260505085734 71 192 9.0 16.0 0.00 0.00 0.00 83 1004.1
20260505085704 71 228 7.0 16.0 0.00 0.00 0.00 83 1004.1
20260505085634 71 200 8.0 17.0 0.00 0.00 0.00 83 1004.1
20260505085605 71 185 8.0 17.0 0.00 0.00 0.00 83 1004.0
20260505085323 71 207 7.0 17.0 0.00 0.00 0.00 83 1004.1
20260505085223 71 151 8.0 17.0 0.00 0.00 0.00 83 1004.0
20260505085123 71 206 7.0 17.0 0.00 0.00 0.00 83 1004.1
20260505085015 71 209 8.0 17.0 0.00 0.00 0.00 83 1004.0
20260505084910 71 188 9.0 17.0 0.00 0.00 0.00 83 1004.1
20260505084830 71 166 8.0 17.0 0.00 0.00 0.00 83 1004.1
20260505084809 71 185 8.0 17.0 0.00 0.00 0.00 83 1004.0
20260505084707 71 188 10.0 17.0 0.00 0.00 0.00 83 1004.0
20260505084607 71 178 10.0 17.0 0.00 0.00 0.00 83 1004.0
20260505084504 71 203 8.0 15.0 0.00 0.00 0.00 82 1004.0
20260505084403 71 197 9.0 15.0 0.00 0.00 0.00 82 1003.8
20260505084331 71 202 9.0 15.0 0.00 0.00 0.00 82 1003.8
20260505084247 71 189 8.0 16.0 0.00 0.00 0.00 82 1004.0
20260505084147 72 182 9.0 16.0 0.00 0.00 0.00 82 1004.0
20260505084046 72 182 9.0 16.0 0.00 0.00 0.00 82 1003.7
20260505083945 72 200 8.0 16.0 0.00 0.00 0.00 82 1003.8
20260505083843 72 178 8.0 17.0 0.00 0.00 0.00 82 1003.8
20260505083830 72 195 8.0 17.0 0.00 0.00 0.00 82 1003.8
20260505083740 72 195 8.0 17.0 0.00 0.00 0.00 82 1003.8
20260505083640 72 169 7.0 17.0 0.00 0.00 0.00 82 1003.8
20260505083539 72 186 7.0 17.0 0.00 0.00 0.00 82 1003.7
20260505083437 72 196 9.0 17.0 0.00 0.00 0.00 82 1003.8
20260505083331 72 220 10.0 17.0 0.00 0.00 0.00 82 1003.8
20260505083246 72 138 8.0 14.0 0.00 0.00 0.00 82 1004.0
20260505083237 72 193 9.0 17.0 0.00 0.00 0.00 82 1003.8
20260505083209 72 214 8.0 17.0 0.00 0.00 0.00 82 1003.8
20260505083140 72 226 9.0 17.0 0.00 0.00 0.00 82 1003.8
20260505083108 72 173 9.0 17.0 0.00 0.00 0.00 82 1004.0
20260505083038 72 138 8.0 14.0 0.00 0.00 0.00 82 1004.0
20260505082743 72 200 7.0 18.0 0.00 0.00 0.00 81 1004.1
20260505082732 72 244 8.0 18.0 0.00 0.00 0.00 81 1004.0
20260505082703 72 197 9.0 18.0 0.00 0.00 0.00 81 1004.0
20260505082633 72 197 8.0 18.0 0.00 0.00 0.00 81 1004.0
20260505082603 72 166 7.0 18.0 0.00 0.00 0.00 81 1003.8
20260505082532 72 200 7.0 18.0 0.00 0.00 0.00 81 1004.1
20260505082221 72 195 9.0 18.0 0.00 0.00 0.00 81 1004.0
20260505082118 72 190 9.0 18.0 0.00 0.00 0.00 81 1004.0
20260505082018 72 190 9.0 18.0 0.00 0.00 0.00 81 1004.1
20260505081915 72 192 11.0 18.0 0.00 0.00 0.00 81 1004.0
20260505081824 72 203 10.0 18.0 0.00 0.00 0.00 81 1004.0
20260505081815 72 197 10.0 18.0 0.00 0.00 0.00 81 1004.0
20260505081730 72 195 11.0 18.0 0.00 0.00 0.00 81 1004.0
20260505081719 72 195 9.0 18.0 0.00 0.00 0.00 81 1004.0
20260505081649 72 192 9.0 18.0 0.00 0.00 0.00 81 1004.0
20260505081618 72 197 9.0 18.0 0.00 0.00 0.00 81 1004.0
20260505081546 72 186 10.0 18.0 0.00 0.00 0.00 81 1004.0
20260505081306 72 193 11.0 18.0 0.00 0.00 0.00 81 1004.0
20260505081206 72 203 10.0 18.0 0.00 0.00 0.00 81 1004.0
20260505081103 72 197 9.0 17.0 0.00 0.00 0.00 81 1004.1
20260505081004 72 228 9.0 17.0 0.00 0.00 0.00 81 1004.0
20260505080904 72 185 7.0 17.0 0.00 0.00 0.00 81 1004.1
20260505080841 72 182 8.0 17.0 0.00 0.00 0.00 81 1004.1
20260505080831 72 195 8.0 18.0 0.00 0.00 0.00 81 1004.1
20260505080734 72 220 9.0 21.0 0.00 0.00 0.00 80 1004.2
20260505080717 72 233 9.0 21.0 0.00 0.00 0.00 80 1004.1
20260505080646 72 234 8.0 21.0 0.00 0.00 0.00 80 1004.1
20260505080616 72 144 9.0 21.0 0.00 0.00 0.00 80 1004.2
20260505080545 72 178 10.0 21.0 0.00 0.00 0.00 80 1004.2
20260505080300 72 189 9.0 21.0 0.00 0.00 0.00 80 1004.2
20260505080217 72 227 12.0 21.0 0.00 0.00 0.00 80 1004.2
20260505080206 72 192 9.0 21.0 0.00 0.00 0.00 80 1004.2
20260505080136 72 173 10.0 21.0 0.00 0.00 0.00 80 1004.2
20260505080107 72 155 12.0 21.0 0.00 0.00 0.00 80 1004.0
20260505080036 72 213 12.0 21.0 0.00 0.00 0.00 80 1004.0
20260505075743 72 157 12.0 21.0 0.00 0.00 0.00 80 1004.2
20260505075638 72 182 12.0 17.0 0.00 0.00 0.00 80 1004.2
20260505075537 72 165 9.0 17.0 0.00 0.00 0.00 80 1004.2
20260505075433 72 159 7.0 16.0 0.00 0.00 0.00 80 1004.2
20260505075330 72 171 9.0 16.0 0.00 0.00 0.00 80 1004.2
20260505075314 72 217 9.0 19.0 0.00 0.00 0.00 80 1004.2
20260505075231 72 248 10.0 19.0 0.00 0.00 0.00 80 1004.2
20260505075131 72 182 11.0 19.0 0.00 0.00 0.00 80 1004.2
20260505075032 72 151 11.0 19.0 0.00 0.00 0.00 80 1004.3
20260505074931 72 180 9.0 19.0 0.00 0.00 0.00 80 1004.2
20260505074831 72 209 7.0 19.0 0.00 0.00 0.00 80 1004.2
20260505074814 72 189 8.0 19.0 0.00 0.00 0.00 80 1004.3
20260505074732 72 202 7.0 19.0 0.00 0.00 0.00 80 1004.3
20260505074633 73 203 10.0 22.0 0.00 0.00 0.00 80 1004.3
20260505074532 72 221 10.0 22.0 0.00 0.00 0.00 80 1004.3
20260505074430 73 185 11.0 22.0 0.00 0.00 0.00 80 1004.3
20260505074332 73 186 9.0 22.0 0.00 0.00 0.00 80 1004.2
20260505074313 72 193 8.0 22.0 0.00 0.00 0.00 80 1004.3
20260505074232 73 183 8.0 22.0 0.00 0.00 0.00 80 1004.3
20260505074131 73 195 8.0 22.0 0.00 0.00 0.00 79 1004.3
20260505074030 73 179 9.0 22.0 0.00 0.00 0.00 79 1004.3
20260505073929 73 219 10.0 22.0 0.00 0.00 0.00 79 1004.3
20260505073823 73 137 13.0 22.0 0.00 0.00 0.00 79 1004.3
20260505073810 73 172 13.0 22.0 0.00 0.00 0.00 79 1004.4
20260505073723 73 168 13.0 22.0 0.00 0.00 0.00 79 1004.4
20260505073623 73 195 11.0 16.0 0.00 0.00 0.00 79 1004.5
20260505073522 73 178 11.0 18.0 0.00 0.00 0.00 79 1004.4
20260505073421 73 180 9.0 18.0 0.00 0.00 0.00 79 1004.4
20260505073321 73 176 9.0 18.0 0.00 0.00 0.00 79 1004.4
20260505073308 73 202 9.0 18.0 0.00 0.00 0.00 79 1004.5
20260505073221 73 185 8.0 19.0 0.00 0.00 0.00 79 1004.5
20260505073122 73 192 7.0 19.0 0.00 0.00 0.00 79 1004.4
20260505073023 73 202 8.0 19.0 0.00 0.00 0.00 79 1004.5
20260505072923 73 164 9.0 19.0 0.00 0.00 0.00 79 1004.5
20260505072822 73 171 11.0 19.0 0.00 0.00 0.00 79 1004.5
20260505072807 73 212 11.0 19.0 0.00 0.00 0.00 79 1004.6
20260505072722 73 223 13.0 19.0 0.00 0.00 0.00 79 1004.6
20260505072621 73 166 13.0 19.0 0.00 0.00 0.00 79 1004.6
20260505072521 73 206 11.0 19.0 0.00 0.00 0.00 79 1004.6
20260505072421 73 202 10.0 19.0 0.00 0.00 0.00 79 1004.7
20260505072323 73 213 11.0 19.0 0.00 0.00 0.00 78 1004.7
20260505072309 73 228 11.0 19.0 0.00 0.00 0.00 78 1004.7
20260505072221 73 180 11.0 18.0 0.00 0.00 0.00 78 1004.7
20260505072122 73 228 10.0 18.0 0.00 0.00 0.00 78 1004.7
20260505072020 73 161 10.0 16.0 0.00 0.00 0.00 78 1004.7
20260505071922 73 212 11.0 17.0 0.00 0.00 0.00 78 1004.7
20260505071821 73 188 10.0 17.0 0.00 0.00 0.00 78 1004.7
20260505071807 73 175 9.0 17.0 0.00 0.00 0.00 78 1004.6
20260505071724 73 210 10.0 17.0 0.00 0.00 0.00 78 1004.6
20260505071718 73 182 8.0 22.0 0.00 0.00 0.00 78 1004.8
20260505071649 73 228 10.0 17.0 0.00 0.00 0.00 78 1004.8
20260505071619 73 140 11.0 17.0 0.00 0.00 0.00 78 1004.8
20260505071549 73 178 9.0 22.0 0.00 0.00 0.00 78 1004.7
20260505071521 73 202 8.0 22.0 0.00 0.00 0.00 78 1004.8
20260505071230 73 206 9.0 22.0 0.00 0.00 0.00 77 1004.9
20260505071221 73 230 9.0 22.0 0.00 0.00 0.00 78 1004.7
20260505071149 73 204 9.0 22.0 0.00 0.00 0.00 78 1004.8
20260505071117 73 209 8.0 22.0 0.00 0.00 0.00 78 1004.8
20260505071048 73 193 7.0 22.0 0.00 0.00 0.00 77 1004.8
20260505071017 73 196 9.0 22.0 0.00 0.00 0.00 77 1004.9
20260505070706 73 203 11.0 22.0 0.00 0.00 0.00 78 1004.9
20260505070605 73 188 13.0 22.0 0.00 0.00 0.00 78 1004.8
20260505070507 73 219 13.0 22.0 0.00 0.00 0.00 78 1004.9
20260505070406 73 171 10.0 18.0 0.00 0.00 0.00 77 1004.8
20260505070306 73 203 7.0 18.0 0.00 0.00 0.00 77 1004.8
20260505070206 73 137 7.0 18.0 0.00 0.00 0.00 77 1004.9
20260505070131 73 162 8.0 17.0 0.00 0.00 0.00 77 1005.1
20260505070123 73 209 9.0 19.0 0.00 0.00 0.00 77 1005.2
20260505070107 73 162 9.0 18.0 0.00 0.00 0.00 77 1004.8
20260505070037 73 206 10.0 18.0 0.00 0.00 0.00 77 1004.9
20260505070007 73 164 12.0 18.0 0.00 0.00 0.00 77 1004.8
20260505065944 73 224 12.0 18.0 0.00 0.00 0.00 77 1004.8
20260505065929 73 212 12.0 18.0 0.00 0.00 0.00 77 1004.8
20260505065651 73 188 10.0 17.0 0.00 0.00 0.00 77 1004.9
20260505065623 73 165 8.0 17.0 0.00 0.00 0.00 77 1005.0
20260505065553 73 220 7.0 17.0 0.00 0.00 0.00 77 1005.0
20260505065528 73 210 9.0 17.0 0.00 0.00 0.00 77 1005.0
20260505065509 73 175 10.0 17.0 0.00 0.00 0.00 77 1005.0
20260505065253 73 206 8.0 13.0 0.00 0.00 0.00 76 1005.3
20260505065241 73 200 10.0 17.0 0.00 0.00 0.00 77 1005.0
20260505065210 73 186 9.0 16.0 0.00 0.00 0.00 77 1005.1
20260505065140 73 193 9.0 16.0 0.00 0.00 0.00 77 1005.0
20260505065111 73 165 8.0 16.0 0.00 0.00 0.00 77 1005.1
20260505065041 73 142 10.0 16.0 0.00 0.00 0.00 77 1005.0
20260505065022 73 199 9.0 16.0 0.00 0.00 0.00 77 1005.1
20260505065006 73 207 9.0 16.0 0.00 0.00 0.00 77 1005.1
20260505064937 73 195 6.0 16.0 0.00 0.00 0.00 77 1005.1
20260505064908 73 175 6.0 17.0 0.00 0.00 0.00 77 1005.0
20260505064841 73 173 9.0 17.0 0.00 0.00 0.00 77 1005.1
20260505064812 73 189 10.0 17.0 0.00 0.00 0.00 77 1005.1
20260505064755 73 217 10.0 17.0 0.00 0.00 0.00 77 1005.1
20260505064739 73 176 10.0 17.0 0.00 0.00 0.00 77 1005.1
20260505064709 73 186 8.0 17.0 0.00 0.00 0.00 77 1005.2
20260505064638 73 192 8.0 17.0 0.00 0.00 0.00 77 1005.1
20260505064608 73 204 8.0 17.0 0.00 0.00 0.00 77 1005.2
20260505064539 73 166 6.0 17.0 0.00 0.00 0.00 77 1005.2
20260505064258 73 206 8.0 17.0 0.00 0.00 0.00 77 1005.1
20260505064229 73 169 7.0 17.0 0.00 0.00 0.00 77 1005.2
20260505064159 73 234 6.0 16.0 0.00 0.00 0.00 77 1005.2
20260505064130 73 202 6.0 19.0 0.00 0.00 0.00 77 1005.2
20260505064100 73 204 7.0 19.0 0.00 0.00 0.00 76 1005.2
20260505064042 73 178 8.0 19.0 0.00 0.00 0.00 77 1005.3
20260505064026 73 200 8.0 19.0 0.00 0.00 0.00 77 1005.3
20260505063956 73 193 8.0 19.0 0.00 0.00 0.00 77 1005.2
20260505063927 73 182 8.0 19.0 0.00 0.00 0.00 77 1005.2
20260505063857 73 185 7.0 19.0 0.00 0.00 0.00 77 1005.2
20260505063827 73 180 8.0 19.0 0.00 0.00 0.00 77 1005.3
20260505063548 73 190 10.0 19.0 0.00 0.00 0.00 77 1005.2
20260505063517 73 212 11.0 19.0 0.00 0.00 0.00 77 1005.2
20260505063448 73 173 10.0 19.0 0.00 0.00 0.00 77 1005.3
20260505063418 73 220 8.0 13.0 0.00 0.00 0.00 77 1005.2
20260505063350 73 140 6.0 13.0 0.00 0.00 0.00 77 1005.3
20260505063335 73 183 7.0 13.0 0.00 0.00 0.00 77 1005.2
20260505063318 73 197 7.0 13.0 0.00 0.00 0.00 77 1005.2
20260505063247 73 182 9.0 14.0 0.00 0.00 0.00 77 1005.2
20260505063222 73 190 8.0 14.0 0.00 0.00 0.00 77 1005.2
20260505063153 73 185 7.0 14.0 0.00 0.00 0.00 77 1005.3
20260505063123 73 157 7.0 16.0 0.00 0.00 0.00 77 1005.3
20260505063041 73 188 7.0 16.0 0.00 0.00 0.00 77 1005.3
20260505063016 73 195 8.0 16.0 0.00 0.00 0.00 77 1005.2
20260505062917 73 159 7.0 16.0 0.00 0.00 0.00 77 1005.3
20260505062850 73 168 6.0 16.0 0.00 0.00 0.00 76 1005.3
20260505062822 73 144 6.0 16.0 0.00 0.00 0.00 76 1005.4
20260505062752 73 188 7.0 16.0 0.00 0.00 0.00 76 1005.3
20260505062742 73 178 8.0 16.0 0.00 0.00 0.00 76 1005.3
20260505062720 73 159 7.0 16.0 0.00 0.00 0.00 76 1005.3
20260505062650 73 214 7.0 16.0 0.00 0.00 0.00 76 1005.3
20260505062620 73 176 8.0 16.0 0.00 0.00 0.00 76 1005.3
20260505062549 73 209 9.0 13.0 0.00 0.00 0.00 76 1005.2
20260505062518 73 183 8.0 13.0 0.00 0.00 0.00 76 1005.3
20260505060753 73 206 8.0 13.0 0.00 0.00 0.00 76 1005.3
20260505060652 73 212 5.0 12.0 0.00 0.00 0.00 76 1005.2
20260505060550 73 197 5.0 13.0 0.00 0.00 0.00 76 1005.2
20260505060446 73 159 6.0 13.0 0.00 0.00 0.00 76 1005.3
20260505060345 73 213 8.0 13.0 0.00 0.00 0.00 76 1005.3
20260505060257 73 175 7.0 21.0 0.00 0.00 0.00 76 1005.3
20260505060245 73 186 7.0 21.0 0.00 0.00 0.00 76 1005.3
20260505060145 73 244 6.0 21.0 0.00 0.00 0.00 76 1005.2
20260505060041 73 166 6.0 21.0 0.00 0.00 0.00 76 1005.3
20260505055938 73 137 5.0 21.0 0.00 0.00 0.00 76 1005.2
20260505055837 73 154 6.0 21.0 0.00 0.00 0.00 76 1005.2
20260505055755 73 118 8.0 21.0 0.00 0.00 0.00 76 1005.2
20260505055733 73 203 8.0 21.0 0.00 0.00 0.00 76 1005.2
20260505055634 73 185 9.0 21.0 0.00 0.00 0.00 76 1005.2
20260505055535 73 213 9.0 21.0 0.00 0.00 0.00 76 1005.2
20260505055435 73 190 10.0 21.0 0.00 0.00 0.00 75 1005.2
20260505055334 73 209 8.0 16.0 0.00 0.00 0.00 75 1005.1
20260505055255 73 168 6.0 16.0 0.00 0.00 0.00 75 1005.1
20260505055236 73 202 6.0 16.0 0.00 0.00 0.00 75 1005.1
20260505055159 73 164 6.0 17.0 0.00 0.00 0.00 75 1005.2
20260505055145 73 172 6.0 16.0 0.00 0.00 0.00 75 1005.0
20260505055118 73 200 7.0 17.0 0.00 0.00 0.00 75 1005.0
20260505055048 73 202 8.0 17.0 0.00 0.00 0.00 75 1005.2
20260505055021 73 145 7.0 17.0 0.00 0.00 0.00 75 1005.1
20260505054735 73 147 5.0 17.0 0.00 0.00 0.00 75 1005.2
20260505054635 73 186 5.0 17.0 0.00 0.00 0.00 75 1005.3
20260505054534 73 165 5.0 17.0 0.00 0.00 0.00 75 1005.3
20260505054435 73 144 7.0 19.0 0.00 0.00 0.00 75 1005.3
20260505054331 73 202 8.0 19.0 0.00 0.00 0.00 75 1005.3
20260505054252 73 231 8.0 19.0 0.00 0.00 0.00 75 1005.3
20260505054232 73 180 8.0 19.0 0.00 0.00 0.00 75 1005.3
20260505054129 73 193 7.0 19.0 0.00 0.00 0.00 75 1005.3
20260505054029 73 190 7.0 19.0 0.00 0.00 0.00 75 1005.2
20260505053928 73 200 9.0 19.0 0.00 0.00 0.00 75 1005.4
20260505053825 73 224 9.0 19.0 0.00 0.00 0.00 75 1005.4
20260505053753 73 180 9.0 19.0 0.00 0.00 0.00 75 1005.3
20260505053722 73 213 8.0 19.0 0.00 0.00 0.00 75 1005.3
20260505053624 73 172 10.0 19.0 0.00 0.00 0.00 75 1005.4
20260505053520 73 206 9.0 19.0 0.00 0.00 0.00 75 1005.4
20260505053420 73 162 8.0 16.0 0.00 0.00 0.00 75 1005.4
20260505053320 73 202 9.0 16.0 0.00 0.00 0.00 75 1005.4
20260505053253 73 199 8.0 16.0 0.00 0.00 0.00 75 1005.4
20260505053220 73 176 7.0 16.0 0.00 0.00 0.00 75 1005.4
20260505053121 73 138 6.0 15.0 0.00 0.00 0.00 74 1005.5
20260505053019 74 169 7.0 15.0 0.00 0.00 0.00 74 1005.5
20260505052917 74 207 7.0 16.0 0.00 0.00 0.00 74 1005.5
20260505052818 74 173 6.0 16.0 0.00 0.00 0.00 74 1005.4
20260505052749 74 178 7.0 16.0 0.00 0.00 0.00 74 1005.4
20260505052719 74 171 8.0 16.0 0.00 0.00 0.00 74 1005.4
20260505052617 74 180 10.0 16.0 0.00 0.00 0.00 74 1005.4
20260505052517 74 145 7.0 16.0 0.00 0.00 0.00 74 1005.4
20260505052418 74 188 7.0 16.0 0.00 0.00 0.00 74 1005.5
20260505052318 74 213 7.0 16.0 0.00 0.00 0.00 74 1005.5
20260505052251 74 154 7.0 16.0 0.00 0.00 0.00 74 1005.6
20260505052218 74 214 7.0 16.0 0.00 0.00 0.00 74 1005.6
20260505052118 74 166 9.0 16.0 0.00 0.00 0.00 74 1005.5
20260505052018 74 178 9.0 16.0 0.00 0.00 0.00 74 1005.6
20260505051918 74 176 7.0 16.0 0.00 0.00 0.00 74 1005.6
20260505051814 74 178 7.0 16.0 0.00 0.00 0.00 74 1005.6
20260505051751 74 168 8.0 16.0 0.00 0.00 0.00 74 1005.6
20260505051714 74 172 8.0 16.0 0.00 0.00 0.00 74 1005.6
20260505051612 74 172 9.0 16.0 0.00 0.00 0.00 74 1005.6
20260505051510 74 212 9.0 17.0 0.00 0.00 0.00 74 1005.6
20260505051409 74 158 9.0 17.0 0.00 0.00 0.00 74 1005.6
20260505051308 74 173 9.0 17.0 0.00 0.00 0.00 74 1005.7
20260505051252 74 195 8.0 17.0 0.00 0.00 0.00 74 1005.7
20260505051208 74 178 8.0 17.0 0.00 0.00 0.00 74 1005.7
20260505051105 74 159 9.0 17.0 0.00 0.00 0.00 74 1005.7
20260505051006 74 157 9.0 17.0 0.00 0.00 0.00 74 1005.7
20260505050905 74 179 8.0 17.0 0.00 0.00 0.00 74 1005.7
20260505050806 74 204 7.0 17.0 0.00 0.00 0.00 74 1005.7
20260505050749 74 178 6.0 17.0 0.00 0.00 0.00 74 1005.7
20260505050703 74 180 7.0 17.0 0.00 0.00 0.00 74 1005.8
20260505050603 74 197 8.0 17.0 0.00 0.00 0.00 74 1005.7
20260505050505 74 196 7.0 17.0 0.00 0.00 0.00 74 1005.7
20260505050405 74 179 8.0 17.0 0.00 0.00 0.00 74 1005.8
20260505050302 74 223 7.0 17.0 0.00 0.00 0.00 73 1005.7
20260505050248 74 209 7.0 17.0 0.00 0.00 0.00 73 1005.7
20260505050156 74 216 5.0 17.0 0.00 0.00 0.00 73 1005.7
20260505041739 74 176 9.0 17.0 0.00 0.00 0.00 72 1005.7
20260505041703 74 144 10.0 17.0 0.00 0.00 0.00 72 1005.7
20260505041603 74 145 10.0 17.0 0.00 0.00 0.00 72 1005.8
20260505041503 74 196 8.0 19.0 0.00 0.00 0.00 72 1005.9
20260505041359 74 176 7.0 19.0 0.00 0.00 0.00 72 1005.9
20260505041259 74 183 8.0 19.0 0.00 0.00 0.00 72 1005.8
20260505041237 74 165 8.0 19.0 0.00 0.00 0.00 72 1005.8
20260505041157 74 196 9.0 19.0 0.00 0.00 0.00 71 1005.8
20260505041106 74 183 8.0 19.0 0.00 0.00 0.00 71 1005.9
20260505041059 75 138 10.0 19.0 0.00 0.00 0.00 72 1005.8
20260505041026 74 186 9.0 19.0 0.00 0.00 0.00 71 1005.7
20260505040957 75 168 8.0 19.0 0.00 0.00 0.00 71 1005.8
20260505040927 74 159 9.0 19.0 0.00 0.00 0.00 71 1005.8
20260505040917 75 154 10.0 19.0 0.00 0.00 0.00 71 1005.8
20260505040852 74 161 10.0 19.0 0.00 0.00 0.00 71 1005.8
20260505040614 74 213 9.0 16.0 0.00 0.00 0.00 71 1005.8
20260505040545 74 168 10.0 16.0 0.00 0.00 0.00 71 1005.9
20260505040516 74 147 9.0 18.0 0.00 0.00 0.00 71 1005.8
20260505040448 74 195 8.0 19.0 0.00 0.00 0.00 71 1005.9
20260505040155 75 189 6.0 19.0 0.00 0.00 0.00 71 1005.8
20260505040145 74 149 7.0 19.0 0.00 0.00 0.00 71 1005.9
20260505040112 75 192 7.0 19.0 0.00 0.00 0.00 71 1005.9
20260505040042 75 171 8.0 19.0 0.00 0.00 0.00 71 1005.9
20260505040012 75 175 7.0 19.0 0.00 0.00 0.00 71 1005.9
20260505035941 75 189 6.0 19.0 0.00 0.00 0.00 71 1005.8
20260505035631 75 188 8.0 19.0 0.00 0.00 0.00 71 1005.9
20260505035531 75 144 10.0 19.0 0.00 0.00 0.00 71 1005.8
20260505035432 75 176 10.0 19.0 0.00 0.00 0.00 71 1005.8
20260505035333 75 182 9.0 19.0 0.00 0.00 0.00 71 1005.8
20260505035232 75 173 8.0 18.0 0.00 0.00 0.00 71 1005.8
20260505035131 75 159 8.0 18.0 0.00 0.00 0.00 71 1005.8
20260505035032 75 128 9.0 18.0 0.00 0.00 0.00 71 1005.7
20260505034934 75 172 10.0 18.0 0.00 0.00 0.00 71 1005.7
20260505034832 75 166 8.0 18.0 0.00 0.00 0.00 71 1005.8
20260505034731 75 152 9.0 18.0 0.00 0.00 0.00 71 1005.8
20260505034631 75 175 9.0 18.0 0.00 0.00 0.00 71 1005.8
20260505034531 75 154 7.0 15.0 0.00 0.00 0.00 71 1005.7
20260505034433 75 224 7.0 14.0 0.00 0.00 0.00 71 1005.7
20260505034332 75 192 8.0 14.0 0.00 0.00 0.00 71 1005.8
20260505034231 75 135 7.0 14.0 0.00 0.00 0.00 71 1005.8
20260505034132 75 199 8.0 17.0 0.00 0.00 0.00 71 1005.7
20260505034032 75 149 7.0 17.0 0.00 0.00 0.00 71 1005.7
20260505033931 75 173 6.0 17.0 0.00 0.00 0.00 71 1005.7
20260505033830 75 171 7.0 17.0 0.00 0.00 0.00 71 1005.6
20260505033730 75 200 9.0 17.0 0.00 0.00 0.00 71 1005.7
20260505033630 75 148 8.0 17.0 0.00 0.00 0.00 71 1005.7
20260505033529 75 116 7.0 17.0 0.00 0.00 0.00 71 1005.8
20260505033428 75 176 9.0 17.0 0.00 0.00 0.00 71 1005.9
20260505033326 75 195 9.0 17.0 0.00 0.00 0.00 71 1005.9
20260505033232 75 180 8.0 17.0 0.00 0.00 0.00 71 1005.9
20260505033225 75 162 7.0 16.0 0.00 0.00 0.00 71 1005.9
20260505033124 75 189 7.0 16.0 0.00 0.00 0.00 71 1005.9
20260505033022 75 149 6.0 16.0 0.00 0.00 0.00 71 1005.8
20260505032958 75 157 9.0 16.0 0.00 0.00 0.00 70 1005.9
20260505032953 75 173 8.0 16.0 0.00 0.00 0.00 70 1006.0
20260505032936 75 149 6.0 16.0 0.00 0.00 0.00 71 1005.9
20260505032907 75 226 8.0 16.0 0.00 0.00 0.00 70 1005.9
20260505032844 75 188 8.0 16.0 0.00 0.00 0.00 70 1006.0
20260505032835 75 190 8.0 16.0 0.00 0.00 0.00 70 1006.0
20260505032805 75 180 9.0 16.0 0.00 0.00 0.00 70 1005.9
20260505032739 75 182 9.0 16.0 0.00 0.00 0.00 70 1006.0
20260505032709 75 183 9.0 16.0 0.00 0.00 0.00 70 1005.9
20260505032641 75 164 9.0 16.0 0.00 0.00 0.00 70 1005.9
20260505032404 75 152 8.0 16.0 0.00 0.00 0.00 70 1006.0
20260505032125 75 166 9.0 16.0 0.00 0.00 0.00 70 1006.0
20260505032056 75 155 8.0 16.0 0.00 0.00 0.00 70 1005.8
20260505032026 75 161 7.0 16.0 0.00 0.00 0.00 70 1005.9
20260505031957 75 178 8.0 16.0 0.00 0.00 0.00 70 1005.9
20260505031712 75 155 9.0 16.0 0.00 0.00 0.00 70 1005.9
20260505031614 75 196 9.0 18.0 0.00 0.00 0.00 70 1005.9
20260505031512 75 185 8.0 18.0 0.00 0.00 0.00 70 1005.9
20260505031410 75 121 8.0 18.0 0.00 0.00 0.00 70 1005.9
20260505031308 75 199 8.0 18.0 0.00 0.00 0.00 70 1005.9
20260505031231 75 148 8.0 18.0 0.00 0.00 0.00 70 1005.9
20260505031207 75 162 8.0 18.0 0.00 0.00 0.00 70 1005.8
20260505031144 75 162 8.0 18.0 0.00 0.00 0.00 70 1005.8
20260505031126 75 178 9.0 18.0 0.00 0.00 0.00 70 1005.8
20260505031056 75 179 10.0 18.0 0.00 0.00 0.00 70 1005.9
20260505031024 75 182 9.0 18.0 0.00 0.00 0.00 70 1005.8
20260505030956 75 176 9.0 18.0 0.00 0.00 0.00 70 1005.8
20260505030701 75 171 7.0 18.0 0.00 0.00 0.00 70 1005.8
20260505030600 75 210 5.0 15.0 0.00 0.00 0.00 70 1005.8
20260505030500 75 166 6.0 18.0 0.00 0.00 0.00 70 1005.8
20260505030357 75 185 7.0 18.0 0.00 0.00 0.00 70 1005.9
20260505030256 75 217 7.0 18.0 0.00 0.00 0.00 70 1005.8
20260505030231 75 178 7.0 18.0 0.00 0.00 0.00 70 1005.8
20260505030156 75 141 8.0 18.0 0.00 0.00 0.00 70 1005.8
20260505030141 75 185 10.0 18.0 0.00 0.00 0.00 70 1005.9
20260505030119 75 189 10.0 18.0 0.00 0.00 0.00 70 1005.8
20260505030047 75 196 10.0 18.0 0.00 0.00 0.00 70 1005.8
20260505030019 75 148 8.0 18.0 0.00 0.00 0.00 70 1005.8
20260505025949 75 178 9.0 18.0 0.00 0.00 0.00 70 1005.9
20260505025646 75 169 11.0 18.0 0.00 0.00 0.00 70 1005.8
20260505025544 75 195 11.0 18.0 0.00 0.00 0.00 70 1006.0
20260505025442 75 183 7.0 18.0 0.00 0.00 0.00 70 1005.9
20260505025340 75 113 6.0 18.0 0.00 0.00 0.00 70 1005.9
20260505025240 75 166 8.0 18.0 0.00 0.00 0.00 70 1005.9
20260505025231 75 179 8.0 18.0 0.00 0.00 0.00 70 1005.9
20260505025136 75 204 9.0 18.0 0.00 0.00 0.00 70 1005.9
20260505025034 75 152 9.0 18.0 0.00 0.00 0.00 70 1005.9
20260505024934 75 185 9.0 18.0 0.00 0.00 0.00 70 1005.9
20260505024835 75 178 8.0 18.0 0.00 0.00 0.00 70 1005.9
20260505024734 75 157 8.0 16.0 0.00 0.00 0.00 70 1005.9
20260505024634 75 186 7.0 16.0 0.00 0.00 0.00 70 1005.9
20260505024533 75 173 8.0 15.0 0.00 0.00 0.00 70 1006.0
20260505024433 75 189 9.0 19.0 0.00 0.00 0.00 70 1005.9
20260505024332 75 164 10.0 19.0 0.00 0.00 0.00 70 1005.9
20260505024233 75 188 9.0 19.0 0.00 0.00 0.00 70 1006.0
20260505024134 75 166 8.0 19.0 0.00 0.00 0.00 70 1005.9
20260505024032 75 192 7.0 19.0 0.00 0.00 0.00 70 1005.9
20260505023934 75 154 8.0 19.0 0.00 0.00 0.00 70 1006.0
20260505023834 75 164 9.0 19.0 0.00 0.00 0.00 70 1005.8
20260505023734 75 158 8.0 19.0 0.00 0.00 0.00 69 1005.9
20260505023728 75 127 8.0 19.0 0.00 0.00 0.00 69 1005.9
20260505023625 75 121 11.0 19.0 0.00 0.00 0.00 70 1006.0
20260505023524 75 127 11.0 19.0 0.00 0.00 0.00 70 1006.0
20260505023421 75 178 9.0 18.0 0.00 0.00 0.00 70 1005.9
20260505023319 75 192 7.0 18.0 0.00 0.00 0.00 70 1006.0
20260505023232 75 175 8.0 16.0 0.00 0.00 0.00 70 1006.0
20260505023216 75 151 9.0 16.0 0.00 0.00 0.00 70 1006.0
20260505023116 75 166 9.0 16.0 0.00 0.00 0.00 70 1006.0
20260505023010 75 199 7.0 16.0 0.00 0.00 0.00 70 1006.0
20260505022908 75 182 7.0 16.0 0.00 0.00 0.00 69 1006.0
20260505022806 75 169 8.0 16.0 0.00 0.00 0.00 69 1006.0
20260505022727 75 192 8.0 16.0 0.00 0.00 0.00 69 1006.0
20260505022707 75 175 8.0 16.0 0.00 0.00 0.00 69 1006.0
20260505022606 75 165 8.0 14.0 0.00 0.00 0.00 69 1006.0
20260505022504 75 159 8.0 14.0 0.00 0.00 0.00 69 1005.9
20260505022402 75 141 9.0 14.0 0.00 0.00 0.00 69 1006.0
20260505022301 75 161 8.0 14.0 0.00 0.00 0.00 69 1006.0
20260505022227 75 183 7.0 14.0 0.00 0.00 0.00 69 1006.0
20260505022159 75 149 7.0 14.0 0.00 0.00 0.00 69 1005.9
20260505022053 75 183 7.0 14.0 0.00 0.00 0.00 69 1005.9
20260505021953 75 200 7.0 18.0 0.00 0.00 0.00 69 1006.0
20260505021851 75 128 5.0 18.0 0.00 0.00 0.00 69 1006.0
20260505021749 75 155 6.0 18.0 0.00 0.00 0.00 69 1005.9
20260505021726 75 164 7.0 18.0 0.00 0.00 0.00 69 1005.9
20260505021650 75 200 8.0 18.0 0.00 0.00 0.00 69 1005.9
20260505021549 75 151 7.0 18.0 0.00 0.00 0.00 69 1005.9
20260505021446 75 180 6.0 18.0 0.00 0.00 0.00 69 1005.9
20260505021334 75 219 6.0 18.0 0.00 0.00 0.00 69 1005.9
20260505021236 76 155 6.0 18.0 0.00 0.00 0.00 69 1005.9
20260505021225 76 175 7.0 18.0 0.00 0.00 0.00 69 1005.9
20260505021134 76 148 9.0 18.0 0.00 0.00 0.00 68 1005.9
20260505021033 76 180 8.0 18.0 0.00 0.00 0.00 68 1005.8
20260505020932 76 178 6.0 12.0 0.00 0.00 0.00 68 1006.0
20260505020829 76 182 6.0 12.0 0.00 0.00 0.00 68 1005.9
20260505020728 76 204 7.0 12.0 0.00 0.00 0.00 68 1005.9
20260505020625 76 178 6.0 12.0 0.00 0.00 0.00 68 1006.0
20260505020523 76 171 5.0 12.0 0.00 0.00 0.00 68 1005.9
20260505020422 76 178 6.0 12.0 0.00 0.00 0.00 68 1005.9
20260505020322 76 171 6.0 15.0 0.00 0.00 0.00 67 1006.0
20260505020216 76 182 5.0 17.0 0.00 0.00 0.00 67 1005.9
20260505020119 76 202 4.0 17.0 0.00 0.00 0.00 67 1005.8
20260505020017 76 175 5.0 17.0 0.00 0.00 0.00 67 1005.8
20260505015916 76 188 7.0 17.0 0.00 0.00 0.00 67 1005.9
20260505015815 76 226 5.0 17.0 0.00 0.00 0.00 67 1005.9
20260505015716 76 157 5.0 17.0 0.00 0.00 0.00 67 1006.0
20260505015615 76 152 6.0 17.0 0.00 0.00 0.00 67 1006.0
20260505015512 76 190 8.0 17.0 0.00 0.00 0.00 67 1006.0
20260505015412 76 192 10.0 17.0 0.00 0.00 0.00 67 1005.9
20260505015310 76 171 10.0 17.0 0.00 0.00 0.00 67 1005.9
20260505015216 76 165 9.0 16.0 0.00 0.00 0.00 67 1005.9
20260505015209 76 158 8.0 16.0 0.00 0.00 0.00 67 1005.9
20260505015106 76 216 8.0 16.0 0.00 0.00 0.00 67 1005.9
20260505015005 76 159 7.0 16.0 0.00 0.00 0.00 67 1005.9
20260505014906 76 180 8.0 16.0 0.00 0.00 0.00 67 1005.9
20260505014805 76 144 10.0 16.0 0.00 0.00 0.00 67 1005.8
20260505014716 76 197 9.0 16.0 0.00 0.00 0.00 67 1005.8
20260505014704 76 220 9.0 16.0 0.00 0.00 0.00 67 1005.9
20260505014627 76 206 8.0 17.0 0.00 0.00 0.00 67 1005.9
20260505014612 76 169 8.0 16.0 0.00 0.00 0.00 67 1005.9
20260505014544 76 212 8.0 16.0 0.00 0.00 0.00 67 1005.9
20260505014515 76 148 7.0 17.0 0.00 0.00 0.00 67 1005.9
20260505014443 76 231 8.0 17.0 0.00 0.00 0.00 67 1005.9
20260505014154 76 207 8.0 17.0 0.00 0.00 0.00 67 1006.0
20260505014050 76 151 8.0 17.0 0.00 0.00 0.00 67 1005.8
20260505013950 76 189 7.0 17.0 0.00 0.00 0.00 67 1005.8
20260505013850 76 204 8.0 17.0 0.00 0.00 0.00 67 1005.8
20260505013746 76 171 7.0 17.0 0.00 0.00 0.00 67 1005.8
20260505013711 76 152 7.0 17.0 0.00 0.00 0.00 67 1005.9
20260505013647 76 165 7.0 17.0 0.00 0.00 0.00 67 1005.9
20260505013536 76 158 9.0 17.0 0.00 0.00 0.00 67 1005.8
20260505013434 76 169 9.0 17.0 0.00 0.00 0.00 67 1005.9
20260505013333 76 165 7.0 13.0 0.00 0.00 0.00 67 1005.9
20260505013232 76 172 6.0 13.0 0.00 0.00 0.00 67 1005.9
20260505013210 76 176 6.0 13.0 0.00 0.00 0.00 67 1006.0
20260505013136 76 189 6.0 13.0 0.00 0.00 0.00 67 1006.0
20260505013033 76 196 6.0 13.0 0.00 0.00 0.00 67 1005.9
20260505012933 76 169 7.0 13.0 0.00 0.00 0.00 67 1005.9
20260505012835 76 165 7.0 13.0 0.00 0.00 0.00 67 1006.0
20260505012734 76 180 6.0 15.0 0.00 0.00 0.00 66 1005.9
20260505012710 76 173 7.0 15.0 0.00 0.00 0.00 66 1005.8
20260505012635 76 176 8.0 15.0 0.00 0.00 0.00 66 1005.8
20260505012534 76 183 7.0 15.0 0.00 0.00 0.00 66 1005.8
20260505012433 76 183 7.0 15.0 0.00 0.00 0.00 66 1005.9
20260505012333 76 183 7.0 15.0 0.00 0.00 0.00 66 1005.8
20260505012233 76 183 7.0 18.0 0.00 0.00 0.00 66 1005.9
20260505012206 76 183 7.0 19.0 0.00 0.00 0.00 66 1005.9
20260505012134 76 183 7.0 19.0 0.00 0.00 0.00 66 1005.9
20260505012032 76 183 7.0 19.0 0.00 0.00 0.00 66 1005.8
20260505011910 76 189 7.0 19.0 0.00 0.00 0.00 66 1005.8
20260505011809 76 147 6.0 19.0 0.00 0.00 0.00 66 1005.9
20260505011705 76 159 7.0 19.0 0.00 0.00 0.00 66 1005.9
20260505011606 76 188 9.0 19.0 0.00 0.00 0.00 66 1005.9
20260505011506 76 209 9.0 19.0 0.00 0.00 0.00 66 1005.8
20260505011405 76 271 10.0 19.0 0.00 0.00 0.00 66 1005.9
20260505011307 76 199 9.0 19.0 0.00 0.00 0.00 66 1005.9
20260505011206 76 221 8.0 16.0 0.00 0.00 0.00 66 1005.9
20260505011105 76 175 8.0 16.0 0.00 0.00 0.00 66 1005.9
20260505011005 76 254 7.0 16.0 0.00 0.00 0.00 66 1005.9
20260505010904 76 220 7.0 16.0 0.00 0.00 0.00 66 1005.9
20260505010807 76 193 7.0 16.0 0.00 0.00 0.00 66 1005.9
20260505010709 76 188 6.0 16.0 0.00 0.00 0.00 66 1005.9
20260505010705 76 199 6.0 16.0 0.00 0.00 0.00 66 1005.9
20260505010605 77 158 7.0 16.0 0.00 0.00 0.00 65 1005.9
20260505010506 77 172 8.0 16.0 0.00 0.00 0.00 65 1005.8
20260505010405 77 197 8.0 18.0 0.00 0.00 0.00 65 1005.9
20260505010304 77 192 7.0 18.0 0.00 0.00 0.00 65 1005.8
20260505010205 77 190 6.0 18.0 0.00 0.00 0.00 65 1005.7
20260505010154 77 147 6.0 18.0 0.00 0.00 0.00 65 1005.7
20260505010055 77 137 10.0 18.0 0.00 0.00 0.00 65 1005.8
20260505005952 77 178 10.0 18.0 0.00 0.00 0.00 65 1005.8
20260505005850 77 188 8.0 18.0 0.00 0.00 0.00 65 1005.7
20260505005748 77 210 6.0 18.0 0.00 0.00 0.00 65 1005.8
20260505005704 77 200 6.0 18.0 0.00 0.00 0.00 65 1005.7
20260505005647 77 133 7.0 18.0 0.00 0.00 0.00 65 1005.7
20260505005545 77 162 11.0 18.0 0.00 0.00 0.00 65 1005.8
20260505005444 77 189 13.0 18.0 0.00 0.00 0.00 65 1005.8
20260505005241 77 224 6.0 18.0 0.00 0.00 0.00 65 1005.9
20260505005204 77 192 7.0 19.0 0.00 0.00 0.00 65 1005.8
20260505005139 77 159 9.0 19.0 0.00 0.00 0.00 65 1005.8
20260505005037 77 154 10.0 19.0 0.00 0.00 0.00 65 1005.7
20260505004934 77 183 9.0 19.0 0.00 0.00 0.00 65 1005.9
20260505004835 77 158 8.0 19.0 0.00 0.00 0.00 65 1005.9
20260505004704 77 213 8.0 19.0 0.00 0.00 0.00 65 1006.0
20260505004632 77 164 9.0 19.0 0.00 0.00 0.00 65 1006.0
20260505004532 77 147 10.0 19.0 0.00 0.00 0.00 65 1005.9
20260505004432 77 154 11.0 19.0 0.00 0.00 0.00 65 1005.8
20260505004332 77 207 10.0 19.0 0.00 0.00 0.00 64 1005.8
20260505004231 77 192 7.0 16.0 0.00 0.00 0.00 65 1005.9
20260505004206 77 158 7.0 14.0 0.00 0.00 0.00 64 1005.9
20260505004131 77 114 6.0 14.0 0.00 0.00 0.00 64 1005.9
20260505004031 77 210 6.0 18.0 0.00 0.00 0.00 64 1005.8
20260505003933 77 117 8.0 18.0 0.00 0.00 0.00 64 1005.9
20260505003832 77 130 8.0 18.0 0.00 0.00 0.00 64 1005.8
20260505003732 77 175 6.0 18.0 0.00 0.00 0.00 64 1005.9
20260505003705 77 176 6.0 18.0 0.00 0.00 0.00 64 1005.9
20260505003632 77 179 7.0 18.0 0.00 0.00 0.00 64 1005.9
20260505003611 77 188 9.0 18.0 0.00 0.00 0.00 64 1006.0
20260505003548 77 175 8.0 18.0 0.00 0.00 0.00 64 1005.9
20260505003515 77 204 6.0 18.0 0.00 0.00 0.00 64 1005.9
20260505003449 77 182 7.0 18.0 0.00 0.00 0.00 64 1006.0
20260505003418 77 161 9.0 18.0 0.00 0.00 0.00 64 1006.0
20260505003116 78 147 6.0 18.0 0.00 0.00 0.00 64 1006.0
20260505003110 77 195 9.0 18.0 0.00 0.00 0.00 64 1006.0
20260505003040 77 216 9.0 18.0 0.00 0.00 0.00 63 1006.0
20260505003011 77 178 9.0 18.0 0.00 0.00 0.00 64 1006.1
20260505002943 78 171 7.0 18.0 0.00 0.00 0.00 64 1006.0
20260505002915 78 141 6.0 18.0 0.00 0.00 0.00 64 1006.0
20260505002625 78 196 11.0 18.0 0.00 0.00 0.00 63 1005.9
20260505002613 78 144 5.0 18.0 0.00 0.00 0.00 64 1006.0
20260505002541 78 179 7.0 18.0 0.00 0.00 0.00 63 1006.0
20260505002513 78 219 10.0 18.0 0.00 0.00 0.00 63 1005.9
20260505002445 78 142 10.0 18.0 0.00 0.00 0.00 63 1005.9
20260505002414 78 196 11.0 18.0 0.00 0.00 0.00 63 1005.9
20260505002106 78 155 11.0 18.0 0.00 0.00 0.00 63 1005.9
20260505002006 78 165 11.0 18.0 0.00 0.00 0.00 63 1005.9
20260505001906 78 175 8.0 17.0 0.00 0.00 0.00 63 1006.0
20260505001806 78 151 7.0 17.0 0.00 0.00 0.00 63 1006.1
20260505001708 78 165 8.0 17.0 0.00 0.00 0.00 63 1005.9
20260505001658 78 178 8.0 17.0 0.00 0.00 0.00 63 1005.9
20260505001606 78 204 7.0 17.0 0.00 0.00 0.00 63 1005.9
20260505001507 78 186 7.0 17.0 0.00 0.00 0.00 63 1005.9
20260505001407 78 154 9.0 17.0 0.00 0.00 0.00 63 1006.0
20260505001306 78 171 8.0 17.0 0.00 0.00 0.00 63 1006.0
20260505001209 78 189 9.0 17.0 0.00 0.00 0.00 63 1006.0
20260505001202 78 195 9.0 17.0 0.00 0.00 0.00 63 1006.0
20260505001103 78 188 9.0 17.0 0.00 0.00 0.00 63 1006.0
20260505001003 78 185 8.0 17.0 0.00 0.00 0.00 63 1006.0
20260505000903 78 182 7.0 17.0 0.00 0.00 0.00 63 1006.0
20260505000804 78 214 7.0 17.0 0.00 0.00 0.00 63 1005.9
20260505000703 78 204 8.0 17.0 0.00 0.00 0.00 62 1006.0
20260505000640 78 186 8.0 17.0 0.00 0.00 0.00 62 1006.0
20260505000604 78 209 9.0 17.0 0.00 0.00 0.00 62 1006.0
20260505000504 79 210 8.0 15.0 0.00 0.00 0.00 62 1006.0
20260505000405 79 176 6.0 17.0 0.00 0.00 0.00 62 1006.1
20260505000305 79 168 6.0 19.0 0.00 0.00 0.00 63 1005.9
20260505000204 79 180 8.0 19.0 0.00 0.00 0.00 62 1006.0
20260505000140 79 196 8.0 19.0 0.00 0.00 0.00 62 1005.9
20260505000104 79 189 8.0 19.0 0.00 0.00 0.00 62 1006.0
20260504235959 79 207 9.0 19.0 0.00 0.00 0.00 62 1005.9
20260504235857 79 190 9.0 19.0 0.00 0.00 0.00 62 1005.9
20260504235751 79 214 9.0 19.0 0.00 0.00 0.00 62 1006.0
20260504235649 78 147 9.0 19.0 0.00 0.00 0.00 62 1005.9
20260504235640 78 151 9.0 19.0 0.00 0.00 0.00 62 1005.9
20260504235546 78 125 11.0 19.0 0.00 0.00 0.00 62 1005.9
20260504235447 78 173 13.0 19.0 0.00 0.00 0.00 62 1005.9
20260504235345 78 182 11.0 19.0 0.00 0.00 0.00 62 1006.0
20260504235243 79 190 10.0 19.0 0.00 0.00 0.00 62 1005.9
20260504235141 79 185 11.0 20.0 0.00 0.00 0.00 62 1005.9
20260504235040 79 195 10.0 20.0 0.00 0.00 0.00 62 1005.8
20260504234833 79 171 6.0 20.0 0.00 0.00 0.00 63 1006.0
20260504234732 79 175 8.0 22.0 0.00 0.00 0.00 62 1006.0
20260504234639 79 158 9.0 22.0 0.00 0.00 0.00 61 1006.0
20260504234633 79 144 9.0 22.0 0.00 0.00 0.00 61 1006.0
20260504234551 79 193 12.0 22.0 0.00 0.00 0.00 61 1006.1
20260504234541 79 190 8.0 22.0 0.00 0.00 0.00 61 1006.1
20260504234511 79 189 10.0 22.0 0.00 0.00 0.00 62 1006.0
20260504234440 79 197 13.0 22.0 0.00 0.00 0.00 61 1006.0
20260504234411 79 210 13.0 22.0 0.00 0.00 0.00 61 1006.0
20260504234133 79 188 12.0 22.0 0.00 0.00 0.00 61 1006.1
20260504234029 79 165 11.0 22.0 0.00 0.00 0.00 61 1006.1
20260504233928 79 197 11.0 22.0 0.00 0.00 0.00 61 1006.1
20260504233828 79 213 10.0 20.0 0.00 0.00 0.00 61 1006.1
20260504233725 79 209 9.0 19.0 0.00 0.00 0.00 61 1006.1
20260504233639 79 158 9.0 19.0 0.00 0.00 0.00 61 1006.1
20260504233619 79 173 9.0 19.0 0.00 0.00 0.00 61 1006.1
20260504233556 79 199 9.0 19.0 0.00 0.00 0.00 61 1006.1
20260504233535 79 169 9.0 19.0 0.00 0.00 0.00 61 1006.2
20260504233504 79 178 8.0 19.0 0.00 0.00 0.00 61 1006.1
20260504233430 79 175 7.0 19.0 0.00 0.00 0.00 61 1006.2
20260504233359 79 171 8.0 19.0 0.00 0.00 0.00 61 1006.2
20260504233059 79 196 11.0 20.0 0.00 0.00 0.00 61 1006.2
20260504233047 79 173 6.0 20.0 0.00 0.00 0.00 62 1006.1
20260504233022 79 195 11.0 20.0 0.00 0.00 0.00 61 1006.1
20260504232952 79 207 10.0 20.0 0.00 0.00 0.00 61 1006.1
20260504232921 79 200 8.0 20.0 0.00 0.00 0.00 62 1006.1
20260504232852 79 176 6.0 20.0 0.00 0.00 0.00 62 1006.1
20260504232548 79 203 8.0 20.0 0.00 0.00 0.00 61 1006.0
20260504232447 79 182 11.0 20.0 0.00 0.00 0.00 61 1006.0
20260504232347 79 166 11.0 20.0 0.00 0.00 0.00 61 1005.9
20260504232244 79 186 10.0 20.0 0.00 0.00 0.00 61 1006.0
20260504232143 79 204 11.0 20.0 0.00 0.00 0.00 61 1006.0
20260504232135 79 135 12.0 20.0 0.00 0.00 0.00 61 1006.0
20260504232041 79 172 12.0 19.0 0.00 0.00 0.00 61 1006.0
20260504231939 79 182 12.0 19.0 0.00 0.00 0.00 61 1006.1
20260504231837 79 182 10.0 20.0 0.00 0.00 0.00 61 1006.0
20260504231738 79 155 9.0 20.0 0.00 0.00 0.00 61 1006.1
20260504231635 79 190 10.0 20.0 0.00 0.00 0.00 61 1006.1
20260504231535 79 220 11.0 20.0 0.00 0.00 0.00 60 1006.1
20260504231432 79 127 11.0 20.0 0.00 0.00 0.00 60 1006.1
20260504231332 79 154 10.0 22.0 0.00 0.00 0.00 60 1006.2
20260504231233 79 165 10.0 22.0 0.00 0.00 0.00 60 1006.3
20260504231136 79 164 10.0 22.0 0.00 0.00 0.00 61 1006.3
20260504231132 79 183 10.0 22.0 0.00 0.00 0.00 61 1006.3
20260504231027 79 118 9.0 22.0 0.00 0.00 0.00 60 1006.3
20260504230926 79 164 9.0 22.0 0.00 0.00 0.00 60 1006.3
20260504230822 79 209 9.0 22.0 0.00 0.00 0.00 60 1006.4
20260504230721 80 161 9.0 22.0 0.00 0.00 0.00 60 1006.4
20260504230632 80 209 9.0 22.0 0.00 0.00 0.00 60 1006.5
20260504230619 80 188 10.0 22.0 0.00 0.00 0.00 60 1006.5
20260504230519 80 131 11.0 22.0 0.00 0.00 0.00 60 1006.4
20260504230417 80 182 9.0 21.0 0.00 0.00 0.00 60 1006.5
20260504230315 80 210 10.0 21.0 0.00 0.00 0.00 60 1006.3
20260504230214 80 165 11.0 21.0 0.00 0.00 0.00 60 1006.4
20260504230131 80 197 9.0 21.0 0.00 0.00 0.00 60 1006.4
20260504230112 80 189 8.0 21.0 0.00 0.00 0.00 59 1006.4
20260504230011 80 192 8.0 21.0 0.00 0.00 0.00 60 1006.3
20260504225909 80 192 10.0 21.0 0.00 0.00 0.00 60 1006.3
20260504225808 80 213 12.0 21.0 0.00 0.00 0.00 59 1006.2
20260504225707 80 227 11.0 21.0 0.00 0.00 0.00 59 1006.3
20260504225632 80 203 11.0 21.0 0.00 0.00 0.00 59 1006.3
20260504225606 80 172 11.0 21.0 0.00 0.00 0.00 59 1006.3
20260504225507 80 176 11.0 21.0 0.00 0.00 0.00 59 1006.4
20260504225407 80 182 10.0 21.0 0.00 0.00 0.00 58 1006.5
20260504225306 80 164 10.0 20.0 0.00 0.00 0.00 59 1006.5
20260504225206 80 219 14.0 20.0 0.00 0.00 0.00 59 1006.5
20260504225131 80 175 11.0 17.0 0.00 0.00 0.00 59 1006.6
20260504225106 80 147 11.0 17.0 0.00 0.00 0.00 59 1006.6
20260504225006 80 147 11.0 17.0 0.00 0.00 0.00 59 1006.6
20260504224906 80 147 11.0 22.0 0.00 0.00 0.00 59 1006.6
20260504224804 80 147 11.0 22.0 0.00 0.00 0.00 59 1006.7
20260504224705 80 147 11.0 26.0 0.00 0.00 0.00 59 1006.7
20260504224633 80 147 11.0 26.0 0.00 0.00 0.00 59 1006.7
20260504224601 80 192 11.0 26.0 0.00 0.00 0.00 59 1006.7
20260504224501 80 190 10.0 26.0 0.00 0.00 0.00 59 1006.7
20260504224402 80 206 8.0 26.0 0.00 0.00 0.00 60 1006.7
20260504224302 80 148 7.0 26.0 0.00 0.00 0.00 59 1006.6
20260504224202 80 189 8.0 26.0 0.00 0.00 0.00 60 1006.7
20260504224116 80 196 11.0 26.0 0.00 0.00 0.00 59 1006.6
20260504224101 80 159 12.0 26.0 0.00 0.00 0.00 59 1006.6
20260504224003 80 193 12.0 26.0 0.00 0.00 0.00 59 1006.7
20260504223904 80 172 12.0 26.0 0.00 0.00 0.00 59 1006.6
20260504223802 80 221 13.0 26.0 0.00 0.00 0.00 59 1006.6
20260504223702 80 207 12.0 21.0 0.00 0.00 0.00 59 1006.7
20260504223616 80 230 11.0 21.0 0.00 0.00 0.00 59 1006.5
20260504223603 80 196 11.0 21.0 0.00 0.00 0.00 59 1006.5
20260504223525 80 228 12.0 19.0 0.00 0.00 0.00 58 1006.6
20260504223510 80 203 10.0 21.0 0.00 0.00 0.00 59 1006.6
20260504223440 80 190 11.0 21.0 0.00 0.00 0.00 58 1006.6
20260504223411 80 183 14.0 21.0 0.00 0.00 0.00 58 1006.6
20260504223333 80 183 12.0 20.0 0.00 0.00 0.00 58 1006.6
20260504223033 81 157 12.0 19.0 0.00 0.00 0.00 58 1006.5
20260504222931 81 154 13.0 19.0 0.00 0.00 0.00 59 1006.4
20260504222830 81 186 10.0 18.0 0.00 0.00 0.00 59 1006.4
20260504222732 80 188 8.0 17.0 0.00 0.00 0.00 59 1006.4
20260504222633 80 186 8.0 20.0 0.00 0.00 0.00 59 1006.5
20260504222617 80 171 7.0 20.0 0.00 0.00 0.00 59 1006.5
20260504222531 80 172 10.0 20.0 0.00 0.00 0.00 59 1006.4
20260504222432 80 169 11.0 20.0 0.00 0.00 0.00 58 1006.4
20260504222330 80 161 11.0 20.0 0.00 0.00 0.00 59 1006.4
20260504222227 80 169 11.0 20.0 0.00 0.00 0.00 59 1006.4
20260504222127 80 189 11.0 20.0 0.00 0.00 0.00 59 1006.3
20260504222114 80 199 10.0 20.0 0.00 0.00 0.00 59 1006.3
20260504222026 81 154 12.0 20.0 0.00 0.00 0.00 58 1006.3
20260504221916 81 178 12.0 20.0 0.00 0.00 0.00 58 1006.3
20260504221815 81 186 11.0 20.0 0.00 0.00 0.00 57 1006.3
20260504221713 81 182 12.0 20.0 0.00 0.00 0.00 58 1006.3
20260504221614 81 190 12.0 19.0 0.00 0.00 0.00 58 1006.3
20260504221606 81 164 11.0 19.0 0.00 0.00 0.00 58 1006.3
20260504221504 81 151 10.0 16.0 0.00 0.00 0.00 57 1006.3
20260504221406 81 117 7.0 16.0 0.00 0.00 0.00 58 1006.3
20260504221306 81 159 6.0 18.0 0.00 0.00 0.00 60 1006.4
20260504221206 81 135 9.0 18.0 0.00 0.00 0.00 59 1006.3
20260504221112 81 197 10.0 20.0 0.00 0.00 0.00 59 1006.4
20260504221103 81 179 10.0 20.0 0.00 0.00 0.00 59 1006.4
20260504221004 81 180 10.0 20.0 0.00 0.00 0.00 59 1006.4
20260504220903 81 180 10.0 20.0 0.00 0.00 0.00 59 1006.4
20260504220803 81 180 10.0 20.0 0.00 0.00 0.00 59 1006.4
20260504220703 81 185 10.0 20.0 0.00 0.00 0.00 59 1006.6
20260504220611 81 213 10.0 20.0 0.00 0.00 0.00 58 1006.5
20260504220602 81 173 10.0 20.0 0.00 0.00 0.00 58 1006.5
20260504220516 81 173 10.0 23.0 0.00 0.00 0.00 58 1006.6
20260504220504 81 168 10.0 20.0 0.00 0.00 0.00 58 1006.6
20260504220439 81 203 10.0 23.0 0.00 0.00 0.00 58 1006.5
20260504220411 81 133 11.0 23.0 0.00 0.00 0.00 58 1006.6
20260504220341 81 171 12.0 23.0 0.00 0.00 0.00 58 1006.6
20260504220101 81 193 10.0 23.0 0.00 0.00 0.00 58 1006.6
20260504220004 81 196 10.0 23.0 0.00 0.00 0.00 58 1006.7
20260504215903 81 192 11.0 23.0 0.00 0.00 0.00 58 1006.6
20260504215803 81 192 11.0 23.0 0.00 0.00 0.00 59 1006.7
20260504215702 81 151 11.0 23.0 0.00 0.00 0.00 59 1006.6
20260504215611 81 207 12.0 23.0 0.00 0.00 0.00 58 1006.7
20260504215601 81 162 12.0 23.0 0.00 0.00 0.00 58 1006.7
20260504215504 81 212 12.0 23.0 0.00 0.00 0.00 57 1006.7
20260504215402 81 189 11.0 18.0 0.00 0.00 0.00 57 1006.7
20260504215304 81 117 11.0 18.0 0.00 0.00 0.00 57 1006.7
20260504215203 81 151 10.0 18.0 0.00 0.00 0.00 58 1006.7
20260504215112 81 202 8.0 17.0 0.00 0.00 0.00 57 1006.8
20260504215103 81 204 8.0 17.0 0.00 0.00 0.00 58 1006.8
20260504215002 81 210 9.0 17.0 0.00 0.00 0.00 58 1006.8
20260504214902 81 180 9.0 17.0 0.00 0.00 0.00 58 1006.9
20260504214801 81 219 9.0 17.0 0.00 0.00 0.00 58 1006.9
20260504214700 81 192 9.0 17.0 0.00 0.00 0.00 58 1006.9
20260504214609 81 176 9.0 17.0 0.00 0.00 0.00 58 1006.9
20260504214600 81 154 9.0 17.0 0.00 0.00 0.00 58 1006.9
20260504214500 81 207 8.0 17.0 0.00 0.00 0.00 58 1006.9
20260504214401 81 189 7.0 17.0 0.00 0.00 0.00 58 1007.0
20260504214259 80 165 8.0 17.0 0.00 0.00 0.00 59 1007.0
20260504214200 80 133 10.0 17.0 0.00 0.00 0.00 58 1007.0
20260504214109 80 123 10.0 19.0 0.00 0.00 0.00 58 1006.9
20260504214101 80 157 10.0 19.0 0.00 0.00 0.00 58 1006.9
20260504214000 80 100 9.0 19.0 0.00 0.00 0.00 58 1007.0
20260504213859 80 144 9.0 19.0 0.00 0.00 0.00 58 1007.1
20260504213800 80 197 8.0 19.0 0.00 0.00 0.00 58 1007.1
20260504213701 80 223 8.0 19.0 0.00 0.00 0.00 58 1007.1
20260504213610 80 164 9.0 19.0 0.00 0.00 0.00 58 1007.3
20260504213600 80 75 9.0 19.0 0.00 0.00 0.00 58 1007.3
20260504213501 80 185 8.0 19.0 0.00 0.00 0.00 58 1007.2
20260504213401 80 142 8.0 19.0 0.00 0.00 0.00 58 1007.4
20260504213301 80 145 10.0 19.0 0.00 0.00 0.00 57 1007.3
20260504213159 81 92 10.0 19.0 0.00 0.00 0.00 58 1007.3
20260504213108 81 161 10.0 16.0 0.00 0.00 0.00 57 1007.3
20260504213100 81 172 10.0 16.0 0.00 0.00 0.00 57 1007.3
20260504213000 81 204 11.0 19.0 0.00 0.00 0.00 57 1007.3
20260504212900 81 217 11.0 21.0 0.00 0.00 0.00 57 1007.2
20260504212759 81 162 10.0 21.0 0.00 0.00 0.00 58 1007.2
20260504212701 81 189 10.0 21.0 0.00 0.00 0.00 57 1007.1
20260504212607 81 172 10.0 21.0 0.00 0.00 0.00 57 1007.1
20260504212559 81 141 10.0 21.0 0.00 0.00 0.00 57 1007.2
20260504212457 81 133 8.0 21.0 0.00 0.00 0.00 58 1007.2
20260504212356 81 231 8.0 21.0 0.00 0.00 0.00 60 1007.2
20260504212250 80 147 9.0 21.0 0.00 0.00 0.00 58 1007.2
20260504212150 80 137 11.0 21.0 0.00 0.00 0.00 58 1007.3
20260504212106 80 168 13.0 21.0 0.00 0.00 0.00 57 1007.3
20260504212051 80 176 13.0 21.0 0.00 0.00 0.00 57 1007.3
20260504211949 80 120 12.0 23.0 0.00 0.00 0.00 57 1007.4
20260504211848 80 151 10.0 23.0 0.00 0.00 0.00 58 1007.2
20260504211747 80 180 10.0 23.0 0.00 0.00 0.00 58 1007.4
20260504211645 80 123 11.0 23.0 0.00 0.00 0.00 57 1007.4
20260504211606 80 183 12.0 23.0 0.00 0.00 0.00 56 1007.4
20260504211543 80 199 13.0 23.0 0.00 0.00 0.00 56 1007.4
20260504211442 81 213 12.0 23.0 0.00 0.00 0.00 57 1007.5
20260504211340 81 137 11.0 23.0 0.00 0.00 0.00 58 1007.4
20260504211237 80 159 13.0 23.0 0.00 0.00 0.00 58 1007.5
20260504211136 80 185 12.0 23.0 0.00 0.00 0.00 58 1007.5
20260504211107 80 183 11.0 23.0 0.00 0.00 0.00 57 1007.5
20260504211036 80 186 10.0 20.0 0.00 0.00 0.00 57 1007.5
20260504210935 80 124 11.0 20.0 0.00 0.00 0.00 58 1007.6
20260504210834 80 178 12.0 20.0 0.00 0.00 0.00 56 1007.6
20260504210731 80 155 11.0 20.0 0.00 0.00 0.00 57 1007.6
20260504210632 80 192 11.0 20.0 0.00 0.00 0.00 57 1007.7
20260504210605 80 197 12.0 20.0 0.00 0.00 0.00 57 1007.7
20260504210532 80 127 13.0 20.0 0.00 0.00 0.00 57 1007.7
20260504210431 80 154 12.0 20.0 0.00 0.00 0.00 56 1007.7
20260504210331 81 171 11.0 19.0 0.00 0.00 0.00 56 1007.6
20260504210231 81 190 11.0 24.0 0.00 0.00 0.00 57 1007.7
20260504210133 81 140 10.0 24.0 0.00 0.00 0.00 57 1007.7
20260504210032 81 192 8.0 24.0 0.00 0.00 0.00 58 1007.7
20260504205931 81 166 8.0 24.0 0.00 0.00 0.00 59 1007.7
20260504205831 80 154 9.0 24.0 0.00 0.00 0.00 57 1007.8
20260504205732 80 179 10.0 24.0 0.00 0.00 0.00 57 1007.8
20260504205631 81 166 9.0 24.0 0.00 0.00 0.00 57 1007.9
20260504205603 81 154 10.0 24.0 0.00 0.00 0.00 56 1007.9
20260504205532 80 200 11.0 24.0 0.00 0.00 0.00 56 1007.9
20260504205518 80 158 9.0 22.0 0.00 0.00 0.00 57 1007.9
20260504205455 81 176 12.0 24.0 0.00 0.00 0.00 56 1007.9
20260504205423 80 171 11.0 24.0 0.00 0.00 0.00 57 1007.9
20260504205353 80 172 8.0 22.0 0.00 0.00 0.00 57 1007.9
20260504205322 80 155 7.0 22.0 0.00 0.00 0.00 57 1007.9
20260504205022 80 200 11.0 22.0 0.00 0.00 0.00 58 1007.9
20260504204921 80 142 14.0 22.0 0.00 0.00 0.00 57 1007.9
20260504204821 80 179 13.0 22.0 0.00 0.00 0.00 57 1008.0
20260504204714 80 161 12.0 20.0 0.00 0.00 0.00 57 1008.0
20260504204612 80 172 12.0 20.0 0.00 0.00 0.00 57 1008.0
20260504204559 80 169 12.0 20.0 0.00 0.00 0.00 57 1008.0
20260504204510 80 172 12.0 20.0 0.00 0.00 0.00 56 1007.9
20260504204410 80 162 11.0 20.0 0.00 0.00 0.00 56 1007.9
20260504204308 80 116 9.0 20.0 0.00 0.00 0.00 57 1008.0
20260504204205 80 161 9.0 20.0 0.00 0.00 0.00 57 1007.9
20260504204107 80 145 11.0 20.0 0.00 0.00 0.00 57 1008.0
20260504204100 80 120 11.0 20.0 0.00 0.00 0.00 57 1008.0
20260504204006 80 185 12.0 20.0 0.00 0.00 0.00 57 1008.1
20260504203905 80 195 13.0 20.0 0.00 0.00 0.00 57 1008.1
20260504203803 80 182 11.0 20.0 0.00 0.00 0.00 56 1008.1
20260504203705 80 158 12.0 21.0 0.00 0.00 0.00 55 1008.0
20260504203609 80 171 13.0 21.0 0.00 0.00 0.00 56 1008.0
20260504203600 80 145 13.0 21.0 0.00 0.00 0.00 56 1008.0
20260504203505 81 207 11.0 21.0 0.00 0.00 0.00 56 1008.0
20260504203403 81 189 11.0 21.0 0.00 0.00 0.00 57 1008.1
20260504203305 80 171 11.0 21.0 0.00 0.00 0.00 57 1008.1
20260504203204 81 212 9.0 21.0 0.00 0.00 0.00 55 1008.2
20260504203107 81 171 8.0 21.0 0.00 0.00 0.00 57 1008.3
20260504203101 81 175 8.0 21.0 0.00 0.00 0.00 57 1008.3
20260504203017 81 176 9.0 17.0 0.00 0.00 0.00 56 1008.4
20260504203007 81 175 11.0 21.0 0.00 0.00 0.00 56 1008.3
20260504202938 81 182 13.0 21.0 0.00 0.00 0.00 55 1008.3
20260504202910 81 186 11.0 21.0 0.00 0.00 0.00 55 1008.4
20260504202841 81 152 9.0 17.0 0.00 0.00 0.00 56 1008.4
20260504202812 81 190 9.0 17.0 0.00 0.00 0.00 57 1008.4
20260504202503 81 169 8.0 17.0 0.00 0.00 0.00 58 1008.4
20260504202403 81 226 8.0 19.0 0.00 0.00 0.00 57 1008.4
20260504202304 81 250 10.0 19.0 0.00 0.00 0.00 55 1008.4
20260504202203 81 149 11.0 19.0 0.00 0.00 0.00 56 1008.5
20260504202105 81 195 10.0 19.0 0.00 0.00 0.00 55 1008.4
20260504202101 81 157 10.0 19.0 0.00 0.00 0.00 55 1008.4
20260504202023 80 200 11.0 19.0 0.00 0.00 0.00 56 1008.4
20260504202011 81 133 9.0 19.0 0.00 0.00 0.00 56 1008.4
20260504201940 80 134 8.0 19.0 0.00 0.00 0.00 58 1008.4
20260504201911 80 182 10.0 19.0 0.00 0.00 0.00 57 1008.4
20260504201840 80 142 11.0 19.0 0.00 0.00 0.00 55 1008.5
20260504201811 80 220 11.0 19.0 0.00 0.00 0.00 56 1008.4
20260504201502 80 213 10.0 19.0 0.00 0.00 0.00 55 1008.7
20260504201404 80 216 11.0 19.0 0.00 0.00 0.00 56 1008.8
20260504201302 80 178 9.0 19.0 0.00 0.00 0.00 56 1008.7
20260504201202 80 151 8.0 19.0 0.00 0.00 0.00 57 1008.7
20260504201107 80 192 9.0 19.0 0.00 0.00 0.00 56 1008.7
20260504201100 80 172 9.0 19.0 0.00 0.00 0.00 56 1008.7
20260504201002 80 164 10.0 19.0 0.00 0.00 0.00 56 1008.8
20260504200904 80 148 12.0 19.0 0.00 0.00 0.00 55 1008.9
20260504200803 80 188 13.0 19.0 0.00 0.00 0.00 54 1009.0
20260504200703 80 133 12.0 19.0 0.00 0.00 0.00 54 1008.9